AT784 Weather Reports


Display with metric or nautical units.
time (UTC)temp
F
wind
direction
speed
MPH
gust
MPH
rain 1hr
in
rain 24hr
in
rain mn
in
humidity
%
barometer
mb
20260507185907 48 258 6.0 14.0 0.00 0.00 0.00 50 1012.8
20260507185806 48 259 6.0 14.0 0.00 0.00 0.00 51 1012.8
20260507185706 48 261 6.0 14.0 0.00 0.00 0.00 50 1012.8
20260507185606 48 259 6.0 14.0 0.00 0.00 0.00 51 1012.8
20260507185506 48 258 5.0 14.0 0.00 0.00 0.00 51 1012.7
20260507185406 48 256 5.0 13.0 0.00 0.00 0.00 48 1012.7
20260507185306 48 255 5.0 11.0 0.00 0.00 0.00 48 1012.8
20260507185207 48 254 5.0 11.0 0.00 0.00 0.00 49 1012.8
20260507185106 48 252 6.0 13.0 0.00 0.00 0.00 50 1012.8
20260507185006 48 249 5.0 13.0 0.00 0.00 0.00 50 1012.8
20260507184906 48 247 5.0 13.0 0.00 0.00 0.00 49 1012.8
20260507184806 48 246 5.0 13.0 0.00 0.00 0.00 50 1012.8
20260507184728 48 246 5.0 13.0 0.00 0.00 0.00 50 1012.8
20260507184607 48 246 5.0 13.0 0.00 0.00 0.00 49 1012.7
20260507184506 48 248 5.0 13.0 0.00 0.00 0.00 49 1012.7
20260507184406 48 250 5.0 13.0 0.00 0.00 0.00 48 1012.7
20260507184327 48 251 5.0 13.0 0.00 0.00 0.00 48 1012.7
20260507184207 48 254 5.0 13.0 0.00 0.00 0.00 49 1012.7
20260507184128 48 254 5.0 13.0 0.00 0.00 0.00 49 1012.7
20260507184027 49 256 4.0 10.0 0.00 0.00 0.00 51 1012.6
20260507183927 49 255 4.0 10.0 0.00 0.00 0.00 51 1012.6
20260507183806 48 259 4.0 10.0 0.00 0.00 0.00 49 1012.6
20260507183706 48 257 5.0 10.0 0.00 0.00 0.00 48 1012.7
20260507183606 48 258 5.0 10.0 0.00 0.00 0.00 45 1012.7
20260507183506 48 256 5.0 13.0 0.00 0.00 0.00 44 1012.7
20260507183406 49 255 5.0 13.0 0.00 0.00 0.00 45 1012.6
20260507183307 49 255 5.0 13.0 0.00 0.00 0.00 46 1012.6
20260507183206 48 254 5.0 13.0 0.00 0.00 0.00 44 1012.7
20260507183127 48 252 5.0 13.0 0.00 0.00 0.00 46 1012.7
20260507183006 48 252 6.0 13.0 0.00 0.00 0.00 46 1012.7
20260507182906 48 253 6.0 13.0 0.00 0.00 0.00 45 1012.7
20260507182807 48 253 5.0 13.0 0.00 0.00 0.00 45 1012.7
20260507182706 48 252 5.0 13.0 0.00 0.00 0.00 45 1012.6
20260507182606 49 252 5.0 13.0 0.00 0.00 0.00 44 1012.6
20260507182527 49 253 5.0 12.0 0.00 0.00 0.00 45 1012.6
20260507182406 49 254 5.0 12.0 0.00 0.00 0.00 46 1012.6
20260507182307 49 255 5.0 12.0 0.00 0.00 0.00 46 1012.6
20260507182206 49 254 4.0 12.0 0.00 0.00 0.00 47 1012.6
20260507182107 48 257 4.0 12.0 0.00 0.00 0.00 46 1012.7
20260507182006 49 256 4.0 11.0 0.00 0.00 0.00 46 1012.7
20260507181906 49 258 4.0 11.0 0.00 0.00 0.00 48 1012.7
20260507181807 49 255 4.0 11.0 0.00 0.00 0.00 46 1012.7
20260507181727 48 253 4.0 11.0 0.00 0.00 0.00 46 1012.7
20260507181606 49 256 4.0 11.0 0.00 0.00 0.00 46 1012.7
20260507181506 49 256 4.0 10.0 0.00 0.00 0.00 46 1012.7
20260507181406 49 255 4.0 10.0 0.00 0.00 0.00 46 1012.7
20260507181328 49 254 4.0 10.0 0.00 0.00 0.00 46 1012.7
20260507181228 49 255 4.0 10.0 0.00 0.00 0.00 45 1012.7
20260507181127 49 254 5.0 10.0 0.00 0.00 0.00 46 1012.7
20260507181007 49 253 5.0 12.0 0.00 0.00 0.00 46 1012.7
20260507180927 49 252 5.0 12.0 0.00 0.00 0.00 48 1012.6
20260507180807 48 250 5.0 12.0 0.00 0.00 0.00 47 1012.6
20260507180706 49 253 5.0 12.0 0.00 0.00 0.00 46 1012.6
20260507180608 49 250 5.0 12.0 0.00 0.00 0.00 46 1012.6
20260507180506 49 249 5.0 12.0 0.00 0.00 0.00 48 1012.6
20260507180406 48 250 5.0 12.0 0.00 0.00 0.00 47 1012.7
20260507180307 48 250 5.0 12.0 0.00 0.00 0.00 45 1012.7
20260507180206 49 249 4.0 12.0 0.00 0.00 0.00 44 1012.7
20260507180106 49 252 4.0 11.0 0.00 0.00 0.00 47 1012.7
20260507180006 49 253 4.0 11.0 0.00 0.00 0.00 48 1012.7
20260507175906 49 256 3.0 11.0 0.00 0.00 0.00 47 1012.7
20260507175806 49 263 3.0 10.0 0.00 0.00 0.00 46 1012.7
20260507175706 49 268 3.0 10.0 0.00 0.00 0.00 46 1012.7
20260507175606 49 275 3.0 8.0 0.00 0.00 0.00 46 1012.6
20260507175506 49 282 3.0 7.0 0.00 0.00 0.00 47 1012.7
20260507175406 49 287 2.0 7.0 0.00 0.00 0.00 46 1012.7
20260507175307 49 298 2.0 7.0 0.00 0.00 0.00 46 1012.7
20260507175206 49 303 3.0 7.0 0.00 0.00 0.00 46 1012.7
20260507175106 49 301 3.0 7.0 0.00 0.00 0.00 47 1012.7
20260507175006 49 304 3.0 7.0 0.00 0.00 0.00 46 1012.7
20260507174927 49 304 3.0 7.0 0.00 0.00 0.00 47 1012.7
20260507174807 49 299 2.0 7.0 0.00 0.00 0.00 48 1012.7
20260507174707 49 293 2.0 7.0 0.00 0.00 0.00 50 1012.7
20260507174606 49 292 3.0 7.0 0.00 0.00 0.00 49 1012.7
20260507174506 49 296 3.0 7.0 0.00 0.00 0.00 48 1012.7
20260507174407 49 292 3.0 7.0 0.00 0.00 0.00 47 1012.7
20260507174327 49 287 3.0 7.0 0.00 0.00 0.00 48 1012.8
20260507174206 49 282 2.0 8.0 0.00 0.00 0.00 47 1012.8
20260507174106 49 285 2.0 8.0 0.00 0.00 0.00 47 1012.8
20260507174027 49 283 2.0 8.0 0.00 0.00 0.00 48 1012.8
20260507173906 48 276 3.0 8.0 0.00 0.00 0.00 48 1012.8
20260507173806 48 284 3.0 8.0 0.00 0.00 0.00 48 1012.8
20260507173706 48 289 3.0 8.0 0.00 0.00 0.00 48 1012.9
20260507173606 48 287 3.0 8.0 0.00 0.00 0.00 48 1012.9
20260507173506 48 283 3.0 8.0 0.00 0.00 0.00 48 1012.9
20260507173427 48 282 3.0 8.0 0.00 0.00 0.00 48 1012.9
20260507173328 48 283 2.0 8.0 0.00 0.00 0.00 49 1012.9
20260507173206 48 285 3.0 7.0 0.00 0.00 0.00 49 1012.9
20260507173127 48 281 3.0 8.0 0.00 0.00 0.00 49 1012.9
20260507173006 48 281 3.0 8.0 0.00 0.00 0.00 49 1013.0
20260507172906 48 282 3.0 8.0 0.00 0.00 0.00 49 1013.0
20260507172806 47 277 3.0 8.0 0.00 0.00 0.00 50 1013.0
20260507172706 47 274 3.0 8.0 0.00 0.00 0.00 49 1013.0
20260507172606 47 272 3.0 8.0 0.00 0.00 0.00 49 1013.0
20260507172506 47 270 3.0 8.0 0.00 0.00 0.00 49 1013.0
20260507172406 47 270 3.0 8.0 0.00 0.00 0.00 49 1013.1
20260507172308 47 274 4.0 8.0 0.00 0.00 0.00 49 1013.1
20260507172206 47 274 3.0 8.0 0.00 0.00 0.00 49 1013.1
20260507172107 47 277 4.0 8.0 0.00 0.00 0.00 49 1013.1
20260507172006 47 275 4.0 8.0 0.00 0.00 0.00 48 1013.1
20260507171906 47 271 4.0 12.0 0.00 0.00 0.00 50 1013.1
20260507171827 47 268 4.0 12.0 0.00 0.00 0.00 50 1013.1
20260507171727 47 267 4.0 12.0 0.00 0.00 0.00 50 1013.2
20260507171606 47 267 4.0 12.0 0.00 0.00 0.00 50 1013.2
20260507171506 47 266 4.0 12.0 0.00 0.00 0.00 49 1013.2
20260507171427 47 263 4.0 12.0 0.00 0.00 0.00 48 1013.3
20260507171306 47 262 4.0 12.0 0.00 0.00 0.00 51 1013.3
20260507171206 47 259 5.0 12.0 0.00 0.00 0.00 50 1013.3
20260507171106 47 258 5.0 12.0 0.00 0.00 0.00 50 1013.3
20260507171006 47 258 5.0 12.0 0.00 0.00 0.00 49 1013.3
20260507170928 48 258 5.0 12.0 0.00 0.00 0.00 48 1013.4
20260507170806 48 264 4.0 11.0 0.00 0.00 0.00 49 1013.4
20260507170706 48 265 4.0 11.0 0.00 0.00 0.00 50 1013.4
20260507170606 48 270 4.0 11.0 0.00 0.00 0.00 51 1013.4
20260507170506 48 276 4.0 11.0 0.00 0.00 0.00 51 1013.4
20260507170406 48 281 4.0 11.0 0.00 0.00 0.00 51 1013.4
20260507170306 48 283 4.0 11.0 0.00 0.00 0.00 51 1013.4
20260507170206 47 282 4.0 11.0 0.00 0.00 0.00 50 1013.4
20260507170106 47 286 3.0 11.0 0.00 0.00 0.00 50 1013.5
20260507170027 47 290 3.0 10.0 0.00 0.00 0.00 50 1013.5
20260507165927 47 295 3.0 10.0 0.00 0.00 0.00 50 1013.5
20260507165806 47 288 4.0 10.0 0.00 0.00 0.00 49 1013.5
20260507165706 47 287 4.0 12.0 0.00 0.00 0.00 48 1013.5
20260507165606 47 288 4.0 12.0 0.00 0.00 0.00 49 1013.5
20260507165527 47 286 4.0 12.0 0.00 0.00 0.00 49 1013.5
20260507165428 48 284 4.0 12.0 0.00 0.00 0.00 50 1013.4
20260507165307 48 286 3.0 12.0 0.00 0.00 0.00 49 1013.4
20260507165227 48 291 3.0 12.0 0.00 0.00 0.00 50 1013.4
20260507165106 48 284 4.0 12.0 0.00 0.00 0.00 49 1013.5
20260507165006 48 281 4.0 12.0 0.00 0.00 0.00 49 1013.5
20260507164906 48 279 4.0 12.0 0.00 0.00 0.00 49 1013.5
20260507164827 48 279 4.0 12.0 0.00 0.00 0.00 49 1013.5
20260507164706 48 287 4.0 9.0 0.00 0.00 0.00 49 1013.5
20260507164627 48 285 4.0 9.0 0.00 0.00 0.00 49 1013.5
20260507164506 48 288 4.0 9.0 0.00 0.00 0.00 49 1013.5
20260507164406 48 289 4.0 10.0 0.00 0.00 0.00 50 1013.5
20260507164306 48 288 4.0 10.0 0.00 0.00 0.00 50 1013.6
20260507164206 48 286 4.0 10.0 0.00 0.00 0.00 50 1013.6
20260507164106 48 288 4.0 10.0 0.00 0.00 0.00 50 1013.6
20260507164007 47 288 4.0 10.0 0.00 0.00 0.00 51 1013.7
20260507163906 47 291 4.0 10.0 0.00 0.00 0.00 50 1013.7
20260507163806 47 291 4.0 10.0 0.00 0.00 0.00 50 1013.7
20260507163727 47 289 4.0 10.0 0.00 0.00 0.00 50 1013.7
20260507163606 47 291 4.0 11.0 0.00 0.00 0.00 48 1013.7
20260507163527 48 289 4.0 11.0 0.00 0.00 0.00 47 1013.7
20260507163406 48 289 4.0 11.0 0.00 0.00 0.00 49 1013.7
20260507163306 48 291 4.0 11.0 0.00 0.00 0.00 49 1013.7
20260507163206 48 287 4.0 12.0 0.00 0.00 0.00 50 1013.8
20260507163106 48 292 4.0 12.0 0.00 0.00 0.00 49 1013.8
20260507163027 48 297 4.0 12.0 0.00 0.00 0.00 49 1013.8
20260507162906 48 296 4.0 12.0 0.00 0.00 0.00 48 1013.8
20260507162806 48 296 4.0 12.0 0.00 0.00 0.00 49 1013.9
20260507162706 48 295 4.0 12.0 0.00 0.00 0.00 49 1013.9
20260507162606 48 294 4.0 12.0 0.00 0.00 0.00 51 1013.9
20260507162506 47 293 4.0 12.0 0.00 0.00 0.00 50 1013.8
20260507162406 47 293 4.0 12.0 0.00 0.00 0.00 49 1013.8
20260507162307 47 293 4.0 12.0 0.00 0.00 0.00 49 1013.9
20260507162206 48 295 4.0 12.0 0.00 0.00 0.00 48 1013.9
20260507162106 48 294 3.0 12.0 0.00 0.00 0.00 48 1013.9
20260507162006 48 292 3.0 12.0 0.00 0.00 0.00 48 1013.8
20260507161927 48 289 3.0 12.0 0.00 0.00 0.00 48 1013.8
20260507161806 48 282 4.0 11.0 0.00 0.00 0.00 48 1013.8
20260507161706 49 276 4.0 11.0 0.00 0.00 0.00 49 1013.8
20260507161606 48 272 4.0 11.0 0.00 0.00 0.00 49 1013.8
20260507161506 49 270 4.0 11.0 0.00 0.00 0.00 49 1013.8
20260507161406 49 267 4.0 11.0 0.00 0.00 0.00 50 1013.8
20260507161306 48 267 4.0 11.0 0.00 0.00 0.00 50 1013.8
20260507161206 48 274 4.0 11.0 0.00 0.00 0.00 49 1013.9
20260507161106 48 270 4.0 11.0 0.00 0.00 0.00 49 1013.9
20260507161006 48 266 4.0 10.0 0.00 0.00 0.00 50 1013.9
20260507160906 48 269 3.0 9.0 0.00 0.00 0.00 49 1013.9
20260507160806 48 275 3.0 9.0 0.00 0.00 0.00 50 1013.9
20260507160706 48 280 4.0 9.0 0.00 0.00 0.00 51 1013.8
20260507160606 48 284 4.0 10.0 0.00 0.00 0.00 50 1013.8
20260507160506 48 289 3.0 10.0 0.00 0.00 0.00 49 1013.9
20260507160406 48 287 3.0 10.0 0.00 0.00 0.00 48 1013.9
20260507160306 48 285 3.0 10.0 0.00 0.00 0.00 52 1013.9
20260507160206 48 280 4.0 10.0 0.00 0.00 0.00 54 1013.9
20260507160106 48 286 4.0 10.0 0.00 0.00 0.00 52 1013.9
20260507160006 48 289 4.0 10.0 0.00 0.00 0.00 51 1013.9
20260507155906 48 288 4.0 11.0 0.00 0.00 0.00 51 1013.9
20260507155806 48 287 3.0 11.0 0.00 0.00 0.00 51 1013.9
20260507155706 48 288 3.0 11.0 0.00 0.00 0.00 53 1013.8
20260507155606 48 289 3.0 11.0 0.00 0.00 0.00 53 1013.8
20260507155527 48 288 3.0 11.0 0.00 0.00 0.00 53 1013.8
20260507155406 48 295 3.0 11.0 0.00 0.00 0.00 53 1013.9
20260507155307 48 298 3.0 11.0 0.00 0.00 0.00 53 1013.9
20260507155206 48 302 3.0 11.0 0.00 0.00 0.00 53 1014.0
20260507155106 48 303 3.0 11.0 0.00 0.00 0.00 53 1014.0
20260507155006 48 303 3.0 11.0 0.00 0.00 0.00 53 1014.0
20260507154906 48 293 4.0 13.0 0.00 0.00 0.00 53 1014.0
20260507154807 48 283 4.0 13.0 0.00 0.00 0.00 53 1014.0
20260507154706 48 278 4.0 13.0 0.00 0.00 0.00 54 1013.9
20260507154628 48 276 4.0 13.0 0.00 0.00 0.00 55 1013.9
20260507154527 47 272 4.0 13.0 0.00 0.00 0.00 55 1013.9
20260507154406 47 275 5.0 13.0 0.00 0.00 0.00 54 1014.1
20260507154306 47 274 5.0 13.0 0.00 0.00 0.00 54 1014.0
20260507154206 47 271 5.0 14.0 0.00 0.00 0.00 54 1014.0
20260507154127 47 268 5.0 14.0 0.00 0.00 0.00 55 1014.0
20260507154008 47 265 5.0 14.0 0.00 0.00 0.00 55 1014.0
20260507153906 47 264 5.0 14.0 0.00 0.00 0.00 55 1014.1
20260507153806 47 266 5.0 14.0 0.00 0.00 0.00 55 1014.0
20260507153707 47 269 5.0 14.0 0.00 0.00 0.00 54 1014.0
20260507153606 47 268 5.0 14.0 0.00 0.00 0.00 54 1014.0
20260507153506 47 265 5.0 14.0 0.00 0.00 0.00 54 1014.0
20260507153406 47 261 6.0 14.0 0.00 0.00 0.00 53 1014.0
20260507153306 47 263 6.0 14.0 0.00 0.00 0.00 52 1014.1
20260507153206 47 265 5.0 13.0 0.00 0.00 0.00 55 1014.1
20260507153106 47 263 5.0 13.0 0.00 0.00 0.00 54 1014.0
20260507153006 47 263 5.0 13.0 0.00 0.00 0.00 55 1014.0
20260507152906 47 265 5.0 13.0 0.00 0.00 0.00 56 1014.0
20260507152806 47 267 5.0 13.0 0.00 0.00 0.00 56 1014.0
20260507152706 47 265 5.0 13.0 0.00 0.00 0.00 56 1014.0
20260507152627 47 264 5.0 14.0 0.00 0.00 0.00 57 1014.0
20260507152506 47 268 5.0 14.0 0.00 0.00 0.00 56 1014.0
20260507152406 47 271 5.0 14.0 0.00 0.00 0.00 56 1014.0
20260507152327 47 268 5.0 14.0 0.00 0.00 0.00 56 1014.1
20260507152206 47 262 5.0 14.0 0.00 0.00 0.00 58 1014.1
20260507152127 47 265 5.0 14.0 0.00 0.00 0.00 58 1014.0
20260507152006 47 269 5.0 14.0 0.00 0.00 0.00 59 1014.1
20260507151927 46 270 5.0 14.0 0.00 0.00 0.00 59 1014.1
20260507151806 46 272 5.0 14.0 0.00 0.00 0.00 58 1014.1
20260507151706 47 273 5.0 14.0 0.00 0.00 0.00 57 1014.1
20260507151606 47 278 4.0 12.0 0.00 0.00 0.00 59 1014.0
20260507151505 47 282 5.0 12.0 0.00 0.00 0.00 59 1014.0
20260507151406 47 280 5.0 12.0 0.00 0.00 0.00 59 1014.0
20260507151306 47 283 4.0 12.0 0.00 0.00 0.00 60 1014.0
20260507151206 46 289 5.0 9.0 0.00 0.00 0.00 60 1014.0
20260507151106 46 290 5.0 9.0 0.00 0.00 0.00 57 1014.0
20260507151027 46 289 5.0 9.0 0.00 0.00 0.00 57 1014.0
20260507150906 46 283 5.0 11.0 0.00 0.00 0.00 58 1014.0
20260507150806 46 279 5.0 11.0 0.00 0.00 0.00 58 1014.0
20260507150706 46 278 5.0 11.0 0.00 0.00 0.00 58 1014.0
20260507150606 46 277 5.0 11.0 0.00 0.00 0.00 58 1014.0
20260507150506 46 274 5.0 11.0 0.00 0.00 0.00 61 1014.1
20260507150406 46 273 5.0 11.0 0.00 0.00 0.00 59 1014.1
20260507150306 46 274 5.0 11.0 0.00 0.00 0.00 60 1014.0
20260507150206 46 271 4.0 11.0 0.00 0.00 0.00 60 1014.0
20260507150106 46 267 5.0 11.0 0.00 0.00 0.00 61 1014.0
20260507150006 46 267 5.0 11.0 0.00 0.00 0.00 61 1014.0
20260507145906 47 268 4.0 11.0 0.00 0.00 0.00 61 1014.0
20260507145806 47 272 5.0 10.0 0.00 0.00 0.00 61 1013.9
20260507145706 47 269 5.0 10.0 0.00 0.00 0.00 61 1014.0
20260507145605 47 267 5.0 10.0 0.00 0.00 0.00 61 1014.0
20260507145506 46 271 5.0 10.0 0.00 0.00 0.00 62 1014.0
20260507145406 46 271 5.0 10.0 0.00 0.00 0.00 63 1013.9
20260507145327 46 270 5.0 10.0 0.00 0.00 0.00 63 1013.9
20260507145206 46 272 5.0 10.0 0.00 0.00 0.00 61 1013.9
20260507145105 46 271 5.0 12.0 0.00 0.00 0.00 63 1013.9
20260507145006 46 268 5.0 12.0 0.00 0.00 0.00 63 1013.9
20260507144906 46 271 4.0 12.0 0.00 0.00 0.00 64 1013.9
20260507144806 46 271 4.0 12.0 0.00 0.00 0.00 65 1013.9
20260507144706 46 272 4.0 12.0 0.00 0.00 0.00 63 1013.9
20260507144606 46 275 4.0 12.0 0.00 0.00 0.00 63 1013.9
20260507144506 46 271 4.0 12.0 0.00 0.00 0.00 63 1013.9
20260507144406 46 269 4.0 12.0 0.00 0.00 0.00 63 1013.9
20260507144306 46 265 4.0 12.0 0.00 0.00 0.00 63 1013.9
20260507144206 46 263 4.0 12.0 0.00 0.00 0.00 63 1013.8
20260507144105 46 265 4.0 11.0 0.00 0.00 0.00 63 1013.8
20260507144005 46 269 4.0 11.0 0.00 0.00 0.00 62 1013.9
20260507143906 46 268 4.0 11.0 0.00 0.00 0.00 62 1013.9
20260507143806 46 267 4.0 11.0 0.00 0.00 0.00 62 1013.9
20260507143706 46 267 4.0 11.0 0.00 0.00 0.00 62 1013.9
20260507143606 46 268 5.0 11.0 0.00 0.00 0.00 62 1013.9
20260507143506 46 269 4.0 9.0 0.00 0.00 0.00 62 1013.9
20260507143427 46 269 4.0 9.0 0.00 0.00 0.00 62 1013.9
20260507143306 46 274 4.0 11.0 0.00 0.00 0.00 61 1013.9
20260507143227 46 275 4.0 11.0 0.00 0.00 0.00 60 1013.8
20260507143127 46 279 4.0 11.0 0.00 0.00 0.00 60 1013.8
20260507143027 46 274 4.0 11.0 0.00 0.00 0.00 60 1013.9
20260507142906 46 276 4.0 11.0 0.00 0.00 0.00 61 1014.0
20260507142806 46 274 3.0 11.0 0.00 0.00 0.00 59 1014.0
20260507142706 46 272 4.0 11.0 0.00 0.00 0.00 58 1013.9
20260507142606 47 268 4.0 11.0 0.00 0.00 0.00 60 1013.9
20260507142506 47 264 4.0 11.0 0.00 0.00 0.00 62 1013.9
20260507142406 46 268 4.0 11.0 0.00 0.00 0.00 63 1013.9
20260507142307 46 267 5.0 10.0 0.00 0.00 0.00 62 1014.0
20260507142205 46 262 5.0 10.0 0.00 0.00 0.00 62 1014.0
20260507142126 46 260 5.0 12.0 0.00 0.00 0.00 62 1013.9
20260507142006 46 260 5.0 12.0 0.00 0.00 0.00 63 1013.9
20260507141906 46 259 5.0 12.0 0.00 0.00 0.00 63 1013.9
20260507141806 46 261 5.0 12.0 0.00 0.00 0.00 61 1014.0
20260507141705 46 264 5.0 12.0 0.00 0.00 0.00 64 1014.0
20260507141605 46 262 5.0 12.0 0.00 0.00 0.00 65 1013.9
20260507141505 46 263 4.0 12.0 0.00 0.00 0.00 65 1013.9
20260507141406 46 261 4.0 12.0 0.00 0.00 0.00 65 1013.9
20260507141306 46 264 4.0 12.0 0.00 0.00 0.00 64 1013.9
20260507141205 46 272 3.0 12.0 0.00 0.00 0.00 65 1013.9
20260507141105 46 273 4.0 9.0 0.00 0.00 0.00 65 1013.8
20260507141007 46 273 4.0 9.0 0.00 0.00 0.00 64 1013.8
20260507140906 46 271 4.0 15.0 0.00 0.00 0.00 64 1013.9
20260507140806 46 267 4.0 15.0 0.00 0.00 0.00 64 1013.8
20260507140706 46 267 4.0 15.0 0.00 0.00 0.00 65 1013.8
20260507140605 46 268 4.0 15.0 0.00 0.00 0.00 65 1013.9
20260507140505 46 267 5.0 15.0 0.00 0.00 0.00 64 1013.8
20260507140427 46 266 5.0 15.0 0.00 0.00 0.00 64 1013.8
20260507140306 46 264 4.0 15.0 0.00 0.00 0.00 64 1013.9
20260507140205 46 263 4.0 15.0 0.00 0.00 0.00 63 1013.9
20260507140106 46 265 4.0 15.0 0.00 0.00 0.00 63 1013.9
20260507140006 46 265 4.0 15.0 0.00 0.00 0.00 62 1013.9
20260507135906 46 267 4.0 11.0 0.00 0.00 0.00 62 1013.9
20260507135806 46 270 4.0 11.0 0.00 0.00 0.00 62 1013.9
20260507135706 46 276 3.0 11.0 0.00 0.00 0.00 63 1013.9
20260507135605 46 280 3.0 11.0 0.00 0.00 0.00 63 1013.8
20260507135506 46 286 3.0 9.0 0.00 0.00 0.00 65 1013.9
20260507135406 46 289 3.0 9.0 0.00 0.00 0.00 65 1013.9
20260507135306 46 290 3.0 9.0 0.00 0.00 0.00 64 1013.9
20260507135206 46 289 3.0 9.0 0.00 0.00 0.00 65 1013.9
20260507135105 46 291 3.0 9.0 0.00 0.00 0.00 65 1013.9
20260507135005 45 294 3.0 9.0 0.00 0.00 0.00 65 1013.9
20260507134906 45 295 3.0 9.0 0.00 0.00 0.00 65 1013.9
20260507134806 45 296 3.0 9.0 0.00 0.00 0.00 65 1014.0
20260507134706 46 290 3.0 9.0 0.00 0.00 0.00 65 1014.0
20260507134605 46 285 3.0 9.0 0.00 0.00 0.00 65 1014.0
20260507134527 46 286 3.0 9.0 0.00 0.00 0.00 65 1014.0
20260507134406 45 282 3.0 9.0 0.00 0.00 0.00 65 1014.0
20260507134306 45 280 3.0 9.0 0.00 0.00 0.00 65 1014.0
20260507134206 45 280 3.0 9.0 0.00 0.00 0.00 65 1013.9
20260507134106 46 278 3.0 9.0 0.00 0.00 0.00 65 1013.9
20260507134006 46 280 3.0 8.0 0.00 0.00 0.00 65 1014.0
20260507133906 46 275 3.0 8.0 0.00 0.00 0.00 66 1014.0
20260507133827 46 273 3.0 8.0 0.00 0.00 0.00 66 1013.9
20260507133706 45 275 3.0 8.0 0.00 0.00 0.00 65 1013.9
20260507133606 45 280 3.0 8.0 0.00 0.00 0.00 65 1013.9
20260507133527 45 277 3.0 8.0 0.00 0.00 0.00 67 1013.9
20260507133406 45 282 4.0 8.0 0.00 0.00 0.00 68 1013.9
20260507133305 45 281 4.0 11.0 0.00 0.00 0.00 69 1013.9
20260507133205 45 279 4.0 11.0 0.00 0.00 0.00 68 1013.9
20260507133105 45 277 4.0 11.0 0.00 0.00 0.00 69 1013.9
20260507133006 45 270 5.0 11.0 0.00 0.00 0.00 69 1013.9
20260507132906 45 268 5.0 13.0 0.00 0.00 0.00 69 1013.9
20260507132806 45 264 6.0 13.0 0.00 0.00 0.00 69 1013.9
20260507132706 45 261 6.0 13.0 0.00 0.00 0.00 69 1013.9
20260507132606 44 259 6.0 13.0 0.00 0.00 0.00 68 1013.9
20260507132506 44 259 5.0 13.0 0.00 0.00 0.00 67 1013.9
20260507132406 44 257 5.0 13.0 0.00 0.00 0.00 67 1013.9
20260507132307 45 257 5.0 13.0 0.00 0.00 0.00 68 1013.9
20260507132206 45 255 5.0 13.0 0.00 0.00 0.00 68 1013.8
20260507132105 44 254 5.0 13.0 0.00 0.00 0.00 68 1013.8
20260507132026 44 255 5.0 13.0 0.00 0.00 0.00 67 1013.8
20260507131906 45 256 5.0 12.0 0.00 0.00 0.00 68 1013.8
20260507131827 45 259 5.0 12.0 0.00 0.00 0.00 68 1013.8
20260507131706 44 261 5.0 10.0 0.00 0.00 0.00 70 1013.8
20260507131606 44 261 5.0 10.0 0.00 0.00 0.00 70 1013.8
20260507131505 44 261 5.0 10.0 0.00 0.00 0.00 70 1013.8
20260507131427 44 261 5.0 10.0 0.00 0.00 0.00 70 1013.7
20260507131306 44 258 5.0 10.0 0.00 0.00 0.00 69 1013.7
20260507131206 44 258 5.0 11.0 0.00 0.00 0.00 69 1013.7
20260507131106 44 259 5.0 11.0 0.00 0.00 0.00 70 1013.7
20260507131005 44 260 5.0 11.0 0.00 0.00 0.00 70 1013.7
20260507130905 44 260 5.0 11.0 0.00 0.00 0.00 70 1013.7
20260507130806 44 260 5.0 11.0 0.00 0.00 0.00 71 1013.7
20260507130705 44 259 5.0 11.0 0.00 0.00 0.00 71 1013.7
20260507130606 44 258 5.0 11.0 0.00 0.00 0.00 71 1013.7
20260507130526 44 259 5.0 11.0 0.00 0.00 0.00 71 1013.7
20260507130405 44 261 5.0 11.0 0.00 0.00 0.00 70 1013.6
20260507130305 44 264 4.0 11.0 0.00 0.00 0.00 70 1013.6
20260507130206 44 265 4.0 10.0 0.00 0.00 0.00 70 1013.6
20260507130106 44 265 4.0 10.0 0.00 0.00 0.00 71 1013.6
20260507130006 44 266 3.0 10.0 0.00 0.00 0.00 71 1013.6
20260507125906 44 267 3.0 10.0 0.00 0.00 0.00 71 1013.6
20260507125805 44 269 3.0 10.0 0.00 0.00 0.00 71 1013.6
20260507125706 44 273 3.0 10.0 0.00 0.00 0.00 71 1013.6
20260507125606 44 280 2.0 8.0 0.00 0.00 0.00 72 1013.5
20260507125506 44 279 2.0 8.0 0.00 0.00 0.00 72 1013.5
20260507125405 44 277 3.0 8.0 0.00 0.00 0.00 72 1013.4
20260507125307 44 277 3.0 8.0 0.00 0.00 0.00 73 1013.4
20260507125206 44 278 3.0 8.0 0.00 0.00 0.00 73 1013.4
20260507125106 44 275 3.0 8.0 0.00 0.00 0.00 73 1013.4
20260507125005 44 272 3.0 9.0 0.00 0.00 0.00 73 1013.4
20260507124906 44 269 3.0 9.0 0.00 0.00 0.00 72 1013.4
20260507124827 44 268 3.0 9.0 0.00 0.00 0.00 72 1013.4
20260507124706 44 263 3.0 9.0 0.00 0.00 0.00 72 1013.4
20260507124606 44 261 3.0 9.0 0.00 0.00 0.00 72 1013.3
20260507124527 44 263 3.0 9.0 0.00 0.00 0.00 73 1013.3
20260507124405 44 263 3.0 9.0 0.00 0.00 0.00 73 1013.3
20260507124327 44 261 3.0 9.0 0.00 0.00 0.00 73 1013.3
20260507124227 44 256 3.0 9.0 0.00 0.00 0.00 73 1013.3
20260507124127 44 258 2.0 9.0 0.00 0.00 0.00 74 1013.3
20260507124005 44 265 2.0 7.0 0.00 0.00 0.00 74 1013.3
20260507123906 44 269 2.0 7.0 0.00 0.00 0.00 74 1013.3
20260507123806 43 266 3.0 7.0 0.00 0.00 0.00 74 1013.3
20260507123706 43 267 3.0 8.0 0.00 0.00 0.00 75 1013.3
20260507123606 43 268 2.0 8.0 0.00 0.00 0.00 74 1013.3
20260507123505 43 263 3.0 8.0 0.00 0.00 0.00 75 1013.3
20260507123406 43 267 3.0 8.0 0.00 0.00 0.00 75 1013.3
20260507123306 43 271 3.0 8.0 0.00 0.00 0.00 75 1013.3
20260507123205 43 270 3.0 8.0 0.00 0.00 0.00 75 1013.3
20260507123105 43 270 3.0 8.0 0.00 0.00 0.00 75 1013.3
20260507123006 43 267 3.0 8.0 0.00 0.00 0.00 75 1013.3
20260507122906 43 267 3.0 8.0 0.00 0.00 0.00 75 1013.3
20260507122805 43 271 3.0 8.0 0.00 0.00 0.00 76 1013.3
20260507122706 43 276 3.0 8.0 0.00 0.00 0.00 76 1013.2
20260507122605 43 275 3.0 8.0 0.00 0.00 0.00 76 1013.2
20260507122506 43 274 3.0 8.0 0.00 0.00 0.00 76 1013.3
20260507122406 42 276 3.0 8.0 0.00 0.00 0.00 76 1013.3
20260507122326 42 276 3.0 8.0 0.00 0.00 0.00 76 1013.3
20260507122205 42 290 3.0 8.0 0.00 0.00 0.00 77 1013.2
20260507122127 42 291 3.0 8.0 0.00 0.00 0.00 76 1013.2
20260507122006 42 288 3.0 8.0 0.00 0.00 0.00 77 1013.2
20260507121905 42 287 3.0 8.0 0.00 0.00 0.00 77 1013.2
20260507121805 42 284 3.0 8.0 0.00 0.00 0.00 77 1013.2
20260507121726 42 280 3.0 8.0 0.00 0.00 0.00 77 1013.2
20260507121605 42 278 3.0 8.0 0.00 0.00 0.00 77 1013.2
20260507121506 42 278 3.0 8.0 0.00 0.00 0.00 77 1013.2
20260507121405 42 274 3.0 8.0 0.00 0.00 0.00 76 1013.2
20260507121305 42 270 2.0 7.0 0.00 0.00 0.00 77 1013.2
20260507121206 42 263 2.0 7.0 0.00 0.00 0.00 78 1013.2
20260507121105 42 262 2.0 7.0 0.00 0.00 0.00 78 1013.2
20260507121006 42 266 2.0 7.0 0.00 0.00 0.00 78 1013.2
20260507120905 42 265 2.0 9.0 0.00 0.00 0.00 78 1013.2
20260507120805 42 265 2.0 9.0 0.00 0.00 0.00 78 1013.2
20260507120706 42 268 2.0 9.0 0.00 0.00 0.00 78 1013.2
20260507120606 42 268 2.0 9.0 0.00 0.00 0.00 78 1013.2
20260507120505 42 264 3.0 9.0 0.00 0.00 0.00 78 1013.1
20260507120405 42 263 3.0 9.0 0.00 0.00 0.00 78 1013.2
20260507120305 42 266 3.0 9.0 0.00 0.00 0.00 78 1013.2
20260507120227 42 268 3.0 9.0 0.00 0.00 0.00 78 1013.1
20260507120105 42 264 4.0 9.0 0.00 0.00 0.00 78 1013.1
20260507120026 42 262 4.0 9.0 0.00 0.00 0.00 78 1013.1
20260507115905 42 259 4.0 9.0 0.00 0.00 0.00 78 1013.1
20260507115805 42 260 4.0 9.0 0.00 0.00 0.00 78 1013.1
20260507115706 42 259 4.0 9.0 0.00 0.00 0.00 78 1013.2
20260507115626 42 259 4.0 9.0 0.00 0.00 0.00 78 1013.2
20260507115505 41 263 4.0 9.0 0.00 0.00 0.00 78 1013.1
20260507115405 41 262 4.0 9.0 0.00 0.00 0.00 78 1013.1
20260507115307 41 258 4.0 9.0 0.00 0.00 0.00 78 1013.1
20260507115206 41 257 4.0 9.0 0.00 0.00 0.00 78 1013.2
20260507115105 41 257 4.0 11.0 0.00 0.00 0.00 78 1013.2
20260507115005 41 257 3.0 11.0 0.00 0.00 0.00 78 1013.2
20260507114905 41 259 3.0 11.0 0.00 0.00 0.00 79 1013.1
20260507114805 41 258 3.0 11.0 0.00 0.00 0.00 79 1013.1
20260507114726 41 258 3.0 11.0 0.00 0.00 0.00 79 1013.2
20260507114605 41 256 3.0 11.0 0.00 0.00 0.00 79 1013.1
20260507114505 41 256 3.0 11.0 0.00 0.00 0.00 79 1013.1
20260507114405 41 258 3.0 11.0 0.00 0.00 0.00 79 1013.1
20260507114306 41 263 3.0 11.0 0.00 0.00 0.00 79 1013.1
20260507114206 41 265 3.0 11.0 0.00 0.00 0.00 80 1013.1
20260507114126 41 264 3.0 10.0 0.00 0.00 0.00 80 1013.1
20260507114005 41 266 3.0 10.0 0.00 0.00 0.00 80 1013.0
20260507113906 41 267 3.0 10.0 0.00 0.00 0.00 80 1013.0
20260507113806 41 268 3.0 10.0 0.00 0.00 0.00 80 1013.0
20260507113706 41 269 3.0 9.0 0.00 0.00 0.00 80 1013.0
20260507113605 41 271 3.0 6.0 0.00 0.00 0.00 80 1012.9
20260507113505 41 272 3.0 6.0 0.00 0.00 0.00 80 1012.9
20260507113405 41 270 3.0 6.0 0.00 0.00 0.00 80 1013.0
20260507113305 41 266 3.0 6.0 0.00 0.00 0.00 80 1013.0
20260507113205 41 262 3.0 8.0 0.00 0.00 0.00 80 1013.0
20260507113105 41 263 3.0 8.0 0.00 0.00 0.00 80 1012.9
20260507113006 41 262 2.0 8.0 0.00 0.00 0.00 80 1012.9
20260507112905 41 258 2.0 8.0 0.00 0.00 0.00 80 1012.9
20260507112826 41 258 2.0 8.0 0.00 0.00 0.00 80 1012.9
20260507112726 41 260 2.0 8.0 0.00 0.00 0.00 80 1013.0
20260507112605 40 258 2.0 8.0 0.00 0.00 0.00 81 1013.0
20260507112505 40 259 2.0 8.0 0.00 0.00 0.00 81 1013.0
20260507112405 40 259 2.0 8.0 0.00 0.00 0.00 81 1012.9
20260507112307 40 258 2.0 8.0 0.00 0.00 0.00 81 1012.9
20260507112205 40 262 2.0 6.0 0.00 0.00 0.00 81 1012.9
20260507112105 40 265 1.0 6.0 0.00 0.00 0.00 81 1012.9
20260507112005 40 265 1.0 6.0 0.00 0.00 0.00 81 1012.9
20260507111905 40 267 1.0 5.0 0.00 0.00 0.00 81 1012.9
20260507111805 40 266 1.0 5.0 0.00 0.00 0.00 81 1012.9
20260507111706 40 262 1.0 5.0 0.00 0.00 0.00 81 1012.9
20260507111605 40 265 1.0 4.0 0.00 0.00 0.00 81 1012.9
20260507111506 40 263 1.0 4.0 0.00 0.00 0.00 81 1012.9
20260507111405 40 262 1.0 4.0 0.00 0.00 0.00 81 1012.9
20260507111305 40 261 1.0 5.0 0.00 0.00 0.00 81 1012.8
20260507111226 40 262 1.0 5.0 0.00 0.00 0.00 81 1012.8
20260507111126 40 262 1.0 5.0 0.00 0.00 0.00 81 1012.9
20260507111005 39 260 1.0 5.0 0.00 0.00 0.00 81 1012.9
20260507110906 39 261 1.0 5.0 0.00 0.00 0.00 82 1012.9
20260507110805 39 262 1.0 5.0 0.00 0.00 0.00 82 1012.9
20260507110705 39 263 1.0 5.0 0.00 0.00 0.00 82 1012.9
20260507110605 39 262 1.0 5.0 0.00 0.00 0.00 82 1012.8
20260507110527 39 261 1.0 5.0 0.00 0.00 0.00 82 1012.8
20260507110405 39 0 0.0 5.0 0.00 0.00 0.00 82 1012.8
20260507110305 39 0 0.0 2.0 0.00 0.00 0.00 83 1012.8
20260507110226 39 0 0.0 2.0 0.00 0.00 0.00 82 1012.8
20260507110105 38 0 0.0 2.0 0.00 0.00 0.00 83 1012.7
20260507110005 38 0 0.0 2.0 0.00 0.00 0.00 83 1012.7
20260507105906 38 0 0.0 2.0 0.00 0.00 0.00 82 1012.7
20260507105805 38 0 0.0 2.0 0.00 0.00 0.00 82 1012.7
20260507105705 38 0 0.0 2.0 0.00 0.00 0.00 81 1012.7
20260507105605 38 0 0.0 2.0 0.00 0.00 0.00 81 1012.7
20260507105505 38 0 0.0 2.0 0.00 0.00 0.00 81 1012.7
20260507105405 38 0 0.0 2.0 0.00 0.00 0.00 81 1012.7
20260507105307 38 0 0.0 2.0 0.00 0.00 0.00 81 1012.7
20260507105205 38 0 0.0 2.0 0.00 0.00 0.00 81 1012.7
20260507105106 38 0 0.0 2.0 0.00 0.00 0.00 81 1012.7
20260507105005 38 0 0.0 2.0 0.00 0.00 0.00 81 1012.7
20260507104905 38 0 0.0 2.0 0.00 0.00 0.00 81 1012.7
20260507104805 38 0 0.0 2.0 0.00 0.00 0.00 81 1012.7
20260507104705 38 0 0.0 2.0 0.00 0.00 0.00 81 1012.7
20260507104606 38 0 0.0 2.0 0.00 0.00 0.00 81 1012.7
20260507104506 38 0 0.0 2.0 0.00 0.00 0.00 81 1012.6
20260507104405 38 0 0.0 2.0 0.00 0.00 0.00 82 1012.6
20260507104305 38 0 0.0 2.0 0.00 0.00 0.00 82 1012.6
20260507104205 38 0 0.0 2.0 0.00 0.00 0.00 82 1012.6
20260507104105 37 0 0.0 2.0 0.00 0.00 0.00 81 1012.6
20260507104005 37 0 0.0 1.0 0.00 0.00 0.00 81 1012.6
20260507103905 37 0 0.0 1.0 0.00 0.00 0.00 81 1012.6
20260507103805 37 0 0.0 1.0 0.00 0.00 0.00 81 1012.6
20260507103705 37 0 0.0 1.0 0.00 0.00 0.00 81 1012.6
20260507103605 37 0 0.0 1.0 0.00 0.00 0.00 81 1012.6
20260507103526 37 0 0.0 1.0 0.00 0.00 0.00 81 1012.6
20260507103426 37 0 0.0 1.0 0.00 0.00 0.00 80 1012.6
20260507103305 37 0 0.0 1.0 0.00 0.00 0.00 80 1012.5
20260507103205 37 0 0.0 1.0 0.00 0.00 0.00 80 1012.5
20260507103105 37 0 0.0 0.0 0.00 0.00 0.00 80 1012.5
20260507103027 37 0 0.0 0.0 0.00 0.00 0.00 80 1012.5
20260507102905 38 0 0.0 0.0 0.00 0.00 0.00 79 1012.5
20260507102805 38 0 0.0 0.0 0.00 0.00 0.00 80 1012.5
20260507102705 38 0 0.0 0.0 0.00 0.00 0.00 79 1012.5
20260507102606 38 0 0.0 0.0 0.00 0.00 0.00 79 1012.5
20260507102505 38 0 0.0 0.0 0.00 0.00 0.00 79 1012.5
20260507102405 38 0 0.0 0.0 0.00 0.00 0.00 79 1012.5
20260507102307 38 0 0.0 0.0 0.00 0.00 0.00 79 1012.5
20260507102205 38 0 0.0 0.0 0.00 0.00 0.00 78 1012.5
20260507102105 38 0 0.0 0.0 0.00 0.00 0.00 78 1012.4
20260507102007 38 0 0.0 0.0 0.00 0.00 0.00 78 1012.5
20260507101926 38 0 0.0 0.0 0.00 0.00 0.00 78 1012.5
20260507101805 38 0 0.0 1.0 0.00 0.00 0.00 78 1012.5
20260507101705 38 0 0.0 1.0 0.00 0.00 0.00 78 1012.5
20260507101626 38 0 0.0 1.0 0.00 0.00 0.00 77 1012.5
20260507101506 38 0 0.0 1.0 0.00 0.00 0.00 77 1012.5
20260507101405 39 0 0.0 1.0 0.00 0.00 0.00 77 1012.5
20260507101308 39 0 0.0 1.0 0.00 0.00 0.00 77 1012.5
20260507101205 39 0 0.0 1.0 0.00 0.00 0.00 77 1012.5
20260507101105 39 0 0.0 1.0 0.00 0.00 0.00 77 1012.5
20260507101007 39 0 0.0 1.0 0.00 0.00 0.00 77 1012.5
20260507100926 39 0 0.0 1.0 0.00 0.00 0.00 76 1012.5
20260507100805 39 0 0.0 0.0 0.00 0.00 0.00 76 1012.5
20260507100726 39 0 0.0 0.0 0.00 0.00 0.00 76 1012.5
20260507100605 39 0 0.0 1.0 0.00 0.00 0.00 76 1012.5
20260507100505 39 0 0.0 1.0 0.00 0.00 0.00 76 1012.4
20260507100405 39 0 0.0 1.0 0.00 0.00 0.00 76 1012.4
20260507100326 39 0 0.0 1.0 0.00 0.00 0.00 76 1012.4
20260507100226 40 0 0.0 1.0 0.00 0.00 0.00 76 1012.4
20260507100105 40 0 0.0 1.0 0.00 0.00 0.00 76 1012.4
20260507100005 40 0 0.0 1.0 0.00 0.00 0.00 76 1012.4
20260507095905 40 0 0.0 1.0 0.00 0.00 0.00 76 1012.4
20260507095805 40 0 0.0 1.0 0.00 0.00 0.00 76 1012.4
20260507095705 40 0 0.0 1.0 0.00 0.00 0.00 76 1012.5
20260507095605 40 0 0.0 1.0 0.00 0.00 0.00 76 1012.5
20260507095505 40 0 0.0 1.0 0.00 0.00 0.00 76 1012.4
20260507095405 40 0 0.0 1.0 0.00 0.00 0.00 76 1012.4
20260507095306 40 0 0.0 1.0 0.00 0.00 0.00 76 1012.5
20260507095205 40 0 0.0 1.0 0.00 0.00 0.00 76 1012.5
20260507095105 40 0 0.0 1.0 0.00 0.00 0.00 75 1012.5
20260507095005 40 0 0.0 1.0 0.00 0.00 0.00 75 1012.5
20260507094905 40 0 0.0 1.0 0.00 0.00 0.00 75 1012.5
20260507094805 40 0 0.0 1.0 0.00 0.00 0.00 75 1012.5
20260507094705 40 0 0.0 1.0 0.00 0.00 0.00 75 1012.5
20260507094605 40 0 0.0 1.0 0.00 0.00 0.00 75 1012.5
20260507094505 40 0 0.0 1.0 0.00 0.00 0.00 75 1012.5
20260507094405 40 0 0.0 1.0 0.00 0.00 0.00 74 1012.5
20260507094326 40 0 0.0 1.0 0.00 0.00 0.00 74 1012.5
20260507094205 40 0 0.0 3.0 0.00 0.00 0.00 74 1012.5
20260507094105 40 0 0.0 3.0 0.00 0.00 0.00 74 1012.5
20260507094005 40 0 0.0 3.0 0.00 0.00 0.00 74 1012.5
20260507093926 40 0 0.0 3.0 0.00 0.00 0.00 74 1012.5
20260507093805 41 0 0.0 3.0 0.00 0.00 0.00 74 1012.5
20260507093726 41 0 0.0 3.0 0.00 0.00 0.00 74 1012.5
20260507093605 41 0 0.0 3.0 0.00 0.00 0.00 73 1012.5
20260507093505 41 0 0.0 3.0 0.00 0.00 0.00 73 1012.5
20260507093405 41 0 0.0 3.0 0.00 0.00 0.00 74 1012.5
20260507093326 41 0 0.0 3.0 0.00 0.00 0.00 74 1012.5
20260507093205 41 0 0.0 2.0 0.00 0.00 0.00 73 1012.4
20260507093105 41 0 0.0 1.0 0.00 0.00 0.00 73 1012.5
20260507093005 41 0 0.0 1.0 0.00 0.00 0.00 73 1012.5
20260507092905 41 0 0.0 1.0 0.00 0.00 0.00 73 1012.5
20260507092805 41 0 0.0 1.0 0.00 0.00 0.00 73 1012.5
20260507092705 41 0 0.0 1.0 0.00 0.00 0.00 73 1012.4
20260507092605 41 0 0.0 1.0 0.00 0.00 0.00 73 1012.5
20260507092505 41 0 0.0 2.0 0.00 0.00 0.00 72 1012.5
20260507092405 41 0 0.0 3.0 0.00 0.00 0.00 72 1012.4
20260507092307 41 0 0.0 3.0 0.00 0.00 0.00 72 1012.5
20260507092205 41 0 0.0 3.0 0.00 0.00 0.00 72 1012.5
20260507092126 41 0 0.0 3.0 0.00 0.00 0.00 72 1012.5
20260507092005 41 0 0.0 3.0 0.00 0.00 0.00 72 1012.4
20260507091905 41 0 0.0 3.0 0.00 0.00 0.00 72 1012.4
20260507091805 41 0 0.0 3.0 0.00 0.00 0.00 72 1012.4
20260507091705 41 0 0.0 3.0 0.00 0.00 0.00 72 1012.4
20260507091605 41 0 0.0 3.0 0.00 0.00 0.00 72 1012.4
20260507091505 41 0 0.0 3.0 0.00 0.00 0.00 72 1012.5
20260507091405 41 0 0.0 2.0 0.00 0.00 0.00 72 1012.5
20260507091306 41 0 0.0 2.0 0.00 0.00 0.00 71 1012.5
20260507091206 41 0 0.0 1.0 0.00 0.00 0.00 71 1012.5
20260507091105 41 0 0.0 1.0 0.00 0.00 0.00 71 1012.5
20260507091005 42 0 0.0 2.0 0.00 0.00 0.00 71 1012.5
20260507090905 42 0 0.0 2.0 0.00 0.00 0.00 71 1012.5
20260507090805 42 0 0.0 2.0 0.00 0.00 0.00 71 1012.5
20260507090705 42 0 0.0 2.0 0.00 0.00 0.00 71 1012.5
20260507090626 42 0 0.0 2.0 0.00 0.00 0.00 70 1012.5
20260507090505 42 0 0.0 2.0 0.00 0.00 0.00 70 1012.5
20260507090405 42 0 0.0 2.0 0.00 0.00 0.00 70 1012.5
20260507090305 42 0 0.0 2.0 0.00 0.00 0.00 70 1012.5
20260507090226 42 0 0.0 2.0 0.00 0.00 0.00 70 1012.5
20260507090126 42 0 0.0 2.0 0.00 0.00 0.00 70 1012.5
20260507090006 42 0 0.0 2.0 0.00 0.00 0.00 70 1012.5
20260507085905 42 0 0.0 2.0 0.00 0.00 0.00 70 1012.5
20260507085805 42 0 0.0 2.0 0.00 0.00 0.00 70 1012.5
20260507085705 42 0 0.0 3.0 0.00 0.00 0.00 69 1012.5
20260507085605 42 0 0.0 3.0 0.00 0.00 0.00 69 1012.5
20260507085505 42 0 0.0 3.0 0.00 0.00 0.00 69 1012.5
20260507085405 42 282 1.0 4.0 0.00 0.00 0.00 69 1012.5
20260507085326 42 280 1.0 4.0 0.00 0.00 0.00 69 1012.6
20260507085205 42 0 0.0 4.0 0.00 0.00 0.00 69 1012.6
20260507085105 42 273 1.0 4.0 0.00 0.00 0.00 69 1012.6
20260507085005 42 277 1.0 4.0 0.00 0.00 0.00 68 1012.6
20260507084926 42 286 1.0 4.0 0.00 0.00 0.00 68 1012.6
20260507084805 42 293 1.0 4.0 0.00 0.00 0.00 68 1012.6
20260507084705 42 294 1.0 4.0 0.00 0.00 0.00 68 1012.6
20260507084605 42 291 1.0 4.0 0.00 0.00 0.00 68 1012.6
20260507084526 42 292 1.0 4.0 0.00 0.00 0.00 68 1012.7
20260507084405 43 295 1.0 5.0 0.00 0.00 0.00 68 1012.7
20260507084305 43 295 1.0 5.0 0.00 0.00 0.00 68 1012.7
20260507084226 43 295 1.0 5.0 0.00 0.00 0.00 68 1012.6
20260507084105 43 296 1.0 5.0 0.00 0.00 0.00 68 1012.6
20260507084005 43 293 1.0 5.0 0.00 0.00 0.00 68 1012.7
20260507083905 43 291 1.0 5.0 0.00 0.00 0.00 68 1012.7
20260507083805 43 290 1.0 5.0 0.00 0.00 0.00 67 1012.7
20260507083705 43 292 1.0 5.0 0.00 0.00 0.00 67 1012.7
20260507083626 43 296 1.0 5.0 0.00 0.00 0.00 67 1012.7
20260507083505 43 295 1.0 5.0 0.00 0.00 0.00 67 1012.7
20260507083405 43 296 1.0 5.0 0.00 0.00 0.00 67 1012.7
20260507083305 43 295 2.0 5.0 0.00 0.00 0.00 67 1012.7
20260507083205 43 298 1.0 5.0 0.00 0.00 0.00 67 1012.7
20260507083105 43 297 1.0 5.0 0.00 0.00 0.00 67 1012.7
20260507083005 43 293 2.0 5.0 0.00 0.00 0.00 67 1012.7
20260507082926 43 292 2.0 5.0 0.00 0.00 0.00 67 1012.7
20260507082826 43 295 2.0 5.0 0.00 0.00 0.00 67 1012.7
20260507082705 43 293 2.0 6.0 0.00 0.00 0.00 67 1012.8
20260507082605 43 290 2.0 6.0 0.00 0.00 0.00 67 1012.8
20260507082505 43 289 1.0 6.0 0.00 0.00 0.00 67 1012.8
20260507082405 43 290 1.0 6.0 0.00 0.00 0.00 67 1012.7
20260507082306 43 291 1.0 6.0 0.00 0.00 0.00 67 1012.7
20260507082205 43 289 1.0 6.0 0.00 0.00 0.00 67 1012.8
20260507082105 43 293 1.0 6.0 0.00 0.00 0.00 67 1012.7
20260507082005 43 297 1.0 6.0 0.00 0.00 0.00 67 1012.7
20260507081905 43 286 1.0 6.0 0.00 0.00 0.00 67 1012.7
20260507081805 43 283 1.0 6.0 0.00 0.00 0.00 67 1012.7
20260507081705 43 270 1.0 6.0 0.00 0.00 0.00 68 1012.7
20260507081605 43 268 1.0 4.0 0.00 0.00 0.00 68 1012.8
20260507081505 43 273 1.0 5.0 0.00 0.00 0.00 68 1012.8
20260507081405 43 277 1.0 5.0 0.00 0.00 0.00 68 1012.8
20260507081305 43 277 2.0 5.0 0.00 0.00 0.00 68 1012.8
20260507081205 43 278 2.0 5.0 0.00 0.00 0.00 68 1012.8
20260507081105 44 276 2.0 5.0 0.00 0.00 0.00 68 1012.7
20260507081005 44 276 2.0 5.0 0.00 0.00 0.00 68 1012.7
20260507080905 44 281 2.0 7.0 0.00 0.00 0.00 68 1012.8
20260507080805 44 281 2.0 7.0 0.00 0.00 0.00 68 1012.8
20260507080705 44 287 2.0 7.0 0.00 0.00 0.00 68 1012.8
20260507080605 44 287 2.0 7.0 0.00 0.00 0.00 68 1012.8
20260507080505 44 287 2.0 7.0 0.00 0.00 0.00 68 1012.8
20260507080405 44 285 2.0 7.0 0.00 0.00 0.00 68 1012.9
20260507080306 44 285 1.0 7.0 0.00 0.00 0.00 68 1012.8
20260507080226 44 284 1.0 7.0 0.00 0.00 0.00 68 1012.8
20260507080105 44 284 2.0 7.0 0.00 0.00 0.00 68 1012.8
20260507080026 44 287 2.0 7.0 0.00 0.00 0.00 68 1012.8
20260507075926 44 285 2.0 6.0 0.00 0.00 0.00 68 1012.9
20260507075805 44 287 2.0 7.0 0.00 0.00 0.00 67 1012.9
20260507075705 44 286 2.0 7.0 0.00 0.00 0.00 68 1012.9
20260507075605 44 284 2.0 7.0 0.00 0.00 0.00 67 1012.8
20260507075526 44 284 2.0 7.0 0.00 0.00 0.00 67 1012.8
20260507075426 44 284 2.0 7.0 0.00 0.00 0.00 68 1012.8
20260507075307 44 286 2.0 7.0 0.00 0.00 0.00 68 1012.8
20260507075205 44 287 2.0 8.0 0.00 0.00 0.00 67 1012.8
20260507075126 44 289 2.0 8.0 0.00 0.00 0.00 67 1012.8
20260507075005 44 286 2.0 8.0 0.00 0.00 0.00 67 1012.8
20260507074905 44 287 2.0 8.0 0.00 0.00 0.00 67 1012.8
20260507074805 44 284 1.0 8.0 0.00 0.00 0.00 67 1012.8
20260507074726 44 283 1.0 8.0 0.00 0.00 0.00 67 1012.8
20260507074605 44 281 1.0 8.0 0.00 0.00 0.00 67 1012.8
20260507074505 44 278 1.0 8.0 0.00 0.00 0.00 67 1012.8
20260507074426 44 277 1.0 8.0 0.00 0.00 0.00 67 1012.8
20260507074305 44 269 1.0 8.0 0.00 0.00 0.00 67 1012.8
20260507074226 44 266 1.0 8.0 0.00 0.00 0.00 67 1012.8
20260507074105 44 268 1.0 7.0 0.00 0.00 0.00 67 1012.8
20260507074026 44 268 1.0 7.0 0.00 0.00 0.00 67 1012.9
20260507073905 44 264 1.0 5.0 0.00 0.00 0.00 67 1012.9
20260507073805 44 265 1.0 5.0 0.00 0.00 0.00 67 1012.9
20260507073704 44 264 1.0 5.0 0.00 0.00 0.00 67 1012.8
20260507073605 44 271 1.0 5.0 0.00 0.00 0.00 67 1012.8
20260507073505 44 273 1.0 5.0 0.00 0.00 0.00 67 1012.8
20260507073405 44 274 1.0 5.0 0.00 0.00 0.00 67 1012.8
20260507073305 44 281 1.0 5.0 0.00 0.00 0.00 67 1012.8
20260507073205 44 285 1.0 6.0 0.00 0.00 0.00 67 1012.8
20260507073105 44 286 1.0 6.0 0.00 0.00 0.00 66 1012.8
20260507073005 44 284 1.0 6.0 0.00 0.00 0.00 66 1012.9
20260507072905 44 282 1.0 6.0 0.00 0.00 0.00 66 1012.9
20260507072805 44 285 2.0 8.0 0.00 0.00 0.00 66 1012.9
20260507072705 44 291 2.0 8.0 0.00 0.00 0.00 66 1012.9
20260507072626 44 294 2.0 8.0 0.00 0.00 0.00 65 1012.9
20260507072526 44 298 2.0 8.0 0.00 0.00 0.00 65 1012.8
20260507072405 44 298 2.0 8.0 0.00 0.00 0.00 65 1012.9
20260507072307 44 300 2.0 8.0 0.00 0.00 0.00 65 1012.9
20260507072226 44 304 2.0 8.0 0.00 0.00 0.00 65 1012.8
20260507072105 44 304 2.0 8.0 0.00 0.00 0.00 65 1012.8
20260507072005 44 304 2.0 8.0 0.00 0.00 0.00 64 1012.9
20260507071905 44 308 1.0 8.0 0.00 0.00 0.00 64 1012.8
20260507071805 44 312 1.0 6.0 0.00 0.00 0.00 63 1012.8
20260507071705 44 307 1.0 6.0 0.00 0.00 0.00 64 1012.9
20260507071605 44 299 1.0 6.0 0.00 0.00 0.00 64 1012.9
20260507071505 44 293 1.0 6.0 0.00 0.00 0.00 64 1012.9
20260507071404 44 299 1.0 5.0 0.00 0.00 0.00 63 1012.9
20260507071305 44 294 1.0 5.0 0.00 0.00 0.00 63 1012.9
20260507071205 44 290 1.0 4.0 0.00 0.00 0.00 63 1012.9
20260507071105 44 289 1.0 5.0 0.00 0.00 0.00 63 1012.9
20260507071004 44 292 2.0 5.0 0.00 0.00 0.00 63 1012.8
20260507070905 44 292 2.0 6.0 0.00 0.00 0.00 63 1012.9
20260507070805 44 293 2.0 6.0 0.00 0.00 0.00 63 1012.9
20260507070726 44 291 2.0 6.0 0.00 0.00 0.00 63 1013.0
20260507070605 44 289 2.0 6.0 0.00 0.00 0.00 63 1012.9
20260507070505 44 289 2.0 6.0 0.00 0.00 0.00 62 1012.9
20260507070405 44 287 2.0 6.0 0.00 0.00 0.00 62 1012.9
20260507070305 44 286 2.0 6.0 0.00 0.00 0.00 62 1012.9
20260507070205 44 282 2.0 6.0 0.00 0.00 0.00 62 1013.0
20260507070105 44 284 2.0 10.0 0.00 0.00 0.00 62 1012.9
20260507070027 44 282 2.0 10.0 0.00 0.00 0.00 62 1012.9
20260507065905 44 285 2.0 10.0 0.00 0.00 0.00 62 1013.0
20260507065805 44 288 2.0 10.0 0.00 0.00 0.00 62 1013.0
20260507065704 44 293 1.0 10.0 0.00 0.00 0.00 62 1013.0
20260507065626 44 292 1.0 10.0 0.00 0.00 0.00 62 1013.0
20260507065505 44 291 1.0 10.0 0.00 0.00 0.00 62 1013.0
20260507065405 45 292 1.0 10.0 0.00 0.00 0.00 62 1013.0
20260507065326 45 295 1.0 10.0 0.00 0.00 0.00 62 1013.0
20260507065205 45 298 2.0 10.0 0.00 0.00 0.00 61 1013.0
20260507065105 45 297 2.0 9.0 0.00 0.00 0.00 61 1013.0
20260507065005 45 301 2.0 8.0 0.00 0.00 0.00 61 1013.1
20260507064926 45 302 2.0 8.0 0.00 0.00 0.00 62 1013.1
20260507064805 45 299 1.0 8.0 0.00 0.00 0.00 62 1013.1
20260507064705 45 302 2.0 8.0 0.00 0.00 0.00 62 1013.1
20260507064605 45 301 2.0 8.0 0.00 0.00 0.00 62 1013.1
20260507064526 45 301 2.0 8.0 0.00 0.00 0.00 62 1013.1
20260507064426 45 300 2.0 8.0 0.00 0.00 0.00 61 1013.1
20260507064305 45 298 2.0 10.0 0.00 0.00 0.00 61 1013.2
20260507064204 45 297 3.0 10.0 0.00 0.00 0.00 61 1013.2
20260507064104 45 299 3.0 10.0 0.00 0.00 0.00 61 1013.2
20260507064026 45 296 3.0 10.0 0.00 0.00 0.00 61 1013.2
20260507063905 45 294 3.0 10.0 0.00 0.00 0.00 61 1013.2
20260507063805 45 294 3.0 10.0 0.00 0.00 0.00 61 1013.2
20260507063704 45 292 3.0 10.0 0.00 0.00 0.00 61 1013.3
20260507063604 45 291 2.0 10.0 0.00 0.00 0.00 61 1013.3
20260507063505 45 289 2.0 10.0 0.00 0.00 0.00 61 1013.2
20260507063405 45 289 2.0 10.0 0.00 0.00 0.00 61 1013.2
20260507063305 45 284 2.0 8.0 0.00 0.00 0.00 61 1013.3
20260507063205 45 286 2.0 7.0 0.00 0.00 0.00 61 1013.3
20260507063105 45 278 1.0 7.0 0.00 0.00 0.00 62 1013.3
20260507063026 45 282 1.0 6.0 0.00 0.00 0.00 62 1013.3
20260507062904 45 289 1.0 6.0 0.00 0.00 0.00 62 1013.3
20260507062805 45 293 1.0 6.0 0.00 0.00 0.00 62 1013.3
20260507062705 45 297 1.0 6.0 0.00 0.00 0.00 62 1013.3
20260507062604 45 300 1.0 6.0 0.00 0.00 0.00 62 1013.3
20260507062505 45 303 1.0 6.0 0.00 0.00 0.00 62 1013.3
20260507062405 45 305 1.0 6.0 0.00 0.00 0.00 61 1013.3
20260507062306 45 307 1.0 6.0 0.00 0.00 0.00 61 1013.3
20260507062205 45 309 1.0 4.0 0.00 0.00 0.00 61 1013.2
20260507062105 45 308 2.0 4.0 0.00 0.00 0.00 61 1013.2
20260507062005 45 303 1.0 4.0 0.00 0.00 0.00 61 1013.2
20260507061905 45 302 2.0 4.0 0.00 0.00 0.00 62 1013.2
20260507061805 45 304 2.0 7.0 0.00 0.00 0.00 62 1013.2
20260507061705 45 304 2.0 7.0 0.00 0.00 0.00 62 1013.1
20260507061604 45 302 2.0 7.0 0.00 0.00 0.00 62 1013.1
20260507061505 45 300 2.0 7.0 0.00 0.00 0.00 62 1013.2
20260507061405 45 301 2.0 7.0 0.00 0.00 0.00 62 1013.1
20260507061304 45 303 2.0 7.0 0.00 0.00 0.00 62 1013.1
20260507061205 45 304 2.0 7.0 0.00 0.00 0.00 62 1013.1
20260507061104 45 303 2.0 7.0 0.00 0.00 0.00 62 1013.2
20260507061005 45 306 2.0 7.0 0.00 0.00 0.00 62 1013.2
20260507060904 45 304 1.0 7.0 0.00 0.00 0.00 61 1013.1
20260507060804 45 300 1.0 7.0 0.00 0.00 0.00 62 1013.1
20260507060705 45 302 1.0 7.0 0.00 0.00 0.00 62 1013.2
20260507060604 45 296 1.0 8.0 0.00 0.00 0.00 63 1013.2
20260507060505 45 296 1.0 8.0 0.00 0.00 0.00 63 1013.2
20260507060426 45 295 1.0 8.0 0.00 0.00 0.00 63 1013.2
20260507060305 45 295 2.0 8.0 0.00 0.00 0.00 63 1013.2
20260507060204 45 296 2.0 8.0 0.00 0.00 0.00 63 1013.2
20260507060126 45 297 2.0 8.0 0.00 0.00 0.00 63 1013.2
20260507060005 45 298 2.0 8.0 0.00 0.00 0.00 62 1013.2
20260507055905 45 297 2.0 8.0 0.00 0.00 0.00 62 1013.2
20260507055804 45 299 2.0 8.0 0.00 0.00 0.00 62 1013.2
20260507055704 45 296 2.0 8.0 0.00 0.00 0.00 62 1013.2
20260507055605 45 299 2.0 6.0 0.00 0.00 0.00 62 1013.2
20260507055504 45 298 2.0 6.0 0.00 0.00 0.00 62 1013.2
20260507055404 45 301 2.0 6.0 0.00 0.00 0.00 62 1013.3
20260507055306 45 301 2.0 6.0 0.00 0.00 0.00 62 1013.3
20260507055205 45 300 2.0 6.0 0.00 0.00 0.00 62 1013.3
20260507055126 45 302 2.0 6.0 0.00 0.00 0.00 62 1013.2
20260507055004 45 300 1.0 7.0 0.00 0.00 0.00 62 1013.2
20260507054905 45 302 1.0 7.0 0.00 0.00 0.00 63 1013.3
20260507054805 45 298 1.0 7.0 0.00 0.00 0.00 63 1013.2
20260507054705 45 301 1.0 7.0 0.00 0.00 0.00 63 1013.2
20260507054605 45 301 1.0 7.0 0.00 0.00 0.00 63 1013.3
20260507054505 45 301 1.0 7.0 0.00 0.00 0.00 63 1013.3
20260507054405 45 286 1.0 11.0 0.00 0.00 0.00 63 1013.3
20260507054305 45 281 1.0 11.0 0.00 0.00 0.00 62 1013.3
20260507054204 45 278 1.0 11.0 0.00 0.00 0.00 62 1013.3
20260507054105 45 272 1.0 11.0 0.00 0.00 0.00 62 1013.3
20260507054005 45 275 1.0 11.0 0.00 0.00 0.00 62 1013.3
20260507053904 45 284 1.0 11.0 0.00 0.00 0.00 62 1013.3
20260507053804 45 290 1.0 11.0 0.00 0.00 0.00 62 1013.3
20260507053704 45 286 1.0 11.0 0.00 0.00 0.00 62 1013.3
20260507053605 46 285 1.0 11.0 0.00 0.00 0.00 62 1013.4
20260507053505 45 289 1.0 11.0 0.00 0.00 0.00 62 1013.3
20260507053405 46 298 1.0 4.0 0.00 0.00 0.00 62 1013.3
20260507053304 46 295 1.0 11.0 0.00 0.00 0.00 62 1013.3
20260507053205 46 297 2.0 11.0 0.00 0.00 0.00 62 1013.3
20260507053104 46 295 2.0 11.0 0.00 0.00 0.00 62 1013.4
20260507053026 46 295 2.0 11.0 0.00 0.00 0.00 62 1013.4
20260507052904 46 291 2.0 11.0 0.00 0.00 0.00 62 1013.4
20260507052804 46 287 2.0 11.0 0.00 0.00 0.00 62 1013.4
20260507052705 46 288 3.0 11.0 0.00 0.00 0.00 62 1013.4
20260507052605 46 290 3.0 11.0 0.00 0.00 0.00 62 1013.4
20260507052505 46 290 3.0 11.0 0.00 0.00 0.00 62 1013.4
20260507052404 46 293 3.0 11.0 0.00 0.00 0.00 62 1013.4
20260507052306 46 293 3.0 10.0 0.00 0.00 0.00 61 1013.4
20260507052205 46 290 3.0 10.0 0.00 0.00 0.00 62 1013.4
20260507052104 46 289 3.0 8.0 0.00 0.00 0.00 61 1013.4
20260507052004 46 288 2.0 6.0 0.00 0.00 0.00 61 1013.4
20260507051904 46 290 2.0 6.0 0.00 0.00 0.00 61 1013.4
20260507051805 46 295 2.0 6.0 0.00 0.00 0.00 61 1013.4
20260507051705 46 293 2.0 6.0 0.00 0.00 0.00 61 1013.4
20260507051605 46 290 2.0 5.0 0.00 0.00 0.00 62 1013.4
20260507051504 46 290 2.0 5.0 0.00 0.00 0.00 62 1013.4
20260507051405 46 287 2.0 5.0 0.00 0.00 0.00 62 1013.4
20260507051304 46 292 2.0 5.0 0.00 0.00 0.00 62 1013.4
20260507051204 46 296 2.0 5.0 0.00 0.00 0.00 63 1013.4
20260507051104 46 299 1.0 5.0 0.00 0.00 0.00 63 1013.4
20260507051026 46 305 1.0 4.0 0.00 0.00 0.00 63 1013.4
20260507050904 46 300 2.0 4.0 0.00 0.00 0.00 63 1013.4
20260507050804 46 301 2.0 5.0 0.00 0.00 0.00 63 1013.4
20260507050704 46 300 2.0 5.0 0.00 0.00 0.00 62 1013.3
20260507050605 46 305 2.0 9.0 0.00 0.00 0.00 63 1013.3
20260507050505 46 303 2.0 9.0 0.00 0.00 0.00 63 1013.3
20260507050404 46 300 2.0 9.0 0.00 0.00 0.00 63 1013.3
20260507050304 46 300 2.0 9.0 0.00 0.00 0.00 62 1013.3
20260507050205 46 302 3.0 9.0 0.00 0.00 0.00 63 1013.3
20260507050105 46 300 3.0 9.0 0.00 0.00 0.00 63 1013.3
20260507050005 46 300 3.0 9.0 0.00 0.00 0.00 63 1013.3
20260507045904 46 299 3.0 9.0 0.00 0.00 0.00 62 1013.3
20260507045805 46 295 3.0 9.0 0.00 0.00 0.00 62 1013.3
20260507045726 46 294 3.0 9.0 0.00 0.00 0.00 63 1013.3
20260507045605 46 290 2.0 9.0 0.00 0.00 0.00 63 1013.3
20260507045504 46 289 2.0 9.0 0.00 0.00 0.00 63 1013.3
20260507045404 46 290 2.0 9.0 0.00 0.00 0.00 63 1013.3
20260507045306 46 290 3.0 9.0 0.00 0.00 0.00 63 1013.3
20260507045205 46 289 3.0 9.0 0.00 0.00 0.00 63 1013.3
20260507045104 46 288 3.0 12.0 0.00 0.00 0.00 63 1013.3
20260507045004 46 288 3.0 12.0 0.00 0.00 0.00 63 1013.3
20260507044904 46 286 3.0 12.0 0.00 0.00 0.00 63 1013.3
20260507044804 46 286 3.0 12.0 0.00 0.00 0.00 64 1013.3
20260507044725 46 287 3.0 12.0 0.00 0.00 0.00 64 1013.3
20260507044605 46 286 3.0 12.0 0.00 0.00 0.00 64 1013.2
20260507044505 46 287 3.0 12.0 0.00 0.00 0.00 64 1013.2
20260507044405 46 286 2.0 12.0 0.00 0.00 0.00 63 1013.3
20260507044304 46 285 2.0 12.0 0.00 0.00 0.00 64 1013.3
20260507044204 46 282 2.0 12.0 0.00 0.00 0.00 64 1013.2
20260507044125 46 280 2.0 12.0 0.00 0.00 0.00 65 1013.2
20260507044004 46 276 1.0 6.0 0.00 0.00 0.00 65 1013.2
20260507043904 46 280 1.0 8.0 0.00 0.00 0.00 66 1013.2
20260507043825 46 286 1.0 8.0 0.00 0.00 0.00 66 1013.2
20260507043725 46 281 1.0 8.0 0.00 0.00 0.00 67 1013.2
20260507043604 46 282 1.0 8.0 0.00 0.00 0.00 67 1013.2
20260507043504 46 275 1.0 8.0 0.00 0.00 0.00 68 1013.2
20260507043405 46 271 1.0 8.0 0.00 0.00 0.00 67 1013.2
20260507043305 46 272 2.0 8.0 0.00 0.00 0.00 68 1013.2
20260507043205 46 269 2.0 8.0 0.00 0.00 0.00 69 1013.2
20260507043104 46 275 2.0 8.0 0.00 0.00 0.00 68 1013.2
20260507043004 46 275 2.0 8.0 0.00 0.00 0.00 69 1013.2
20260507042925 46 275 2.0 7.0 0.00 0.00 0.00 69 1013.2
20260507042804 46 272 2.0 6.0 0.00 0.00 0.00 69 1013.3
20260507042725 46 272 2.0 6.0 0.00 0.00 0.00 69 1013.3
20260507042604 46 276 1.0 6.0 0.00 0.00 0.00 70 1013.3
20260507042505 46 279 1.0 6.0 0.00 0.00 0.00 70 1013.3
20260507042426 46 280 1.0 6.0 0.00 0.00 0.00 70 1013.3
20260507042325 46 282 1.0 6.0 0.00 0.00 0.00 70 1013.3
20260507042205 46 283 1.0 6.0 0.00 0.00 0.00 69 1013.3
20260507042125 46 271 1.0 4.0 0.00 0.00 0.00 70 1013.2
20260507042005 46 270 1.0 3.0 0.00 0.00 0.00 69 1013.2
20260507041904 46 268 1.0 3.0 0.00 0.00 0.00 69 1013.2
20260507041805 46 267 1.0 3.0 0.00 0.00 0.00 69 1013.2
20260507041705 46 0 0.0 3.0 0.00 0.00 0.00 69 1013.2
20260507041626 46 0 0.0 3.0 0.00 0.00 0.00 69 1013.2
20260507041504 46 271 1.0 3.0 0.00 0.00 0.00 69 1013.2
20260507041404 46 0 0.0 3.0 0.00 0.00 0.00 68 1013.2
20260507041304 46 0 0.0 3.0 0.00 0.00 0.00 68 1013.2
20260507041205 46 0 0.0 3.0 0.00 0.00 0.00 68 1013.2
20260507041105 46 0 0.0 3.0 0.00 0.00 0.00 68 1013.2
20260507041004 45 0 0.0 3.0 0.00 0.00 0.00 68 1013.2
20260507040905 45 0 0.0 3.0 0.00 0.00 0.00 68 1013.2
20260507040805 45 0 0.0 3.0 0.00 0.00 0.00 68 1013.2
20260507040725 45 0 0.0 3.0 0.00 0.00 0.00 67 1013.2
20260507040605 45 0 0.0 3.0 0.00 0.00 0.00 67 1013.2
20260507040504 45 0 0.0 3.0 0.00 0.00 0.00 67 1013.2
20260507040404 45 0 0.0 1.0 0.00 0.00 0.00 67 1013.2
20260507040304 45 0 0.0 1.0 0.00 0.00 0.00 67 1013.2
20260507040205 45 0 0.0 1.0 0.00 0.00 0.00 67 1013.2
20260507040104 45 0 0.0 1.0 0.00 0.00 0.00 67 1013.2
20260507040007 45 0 0.0 1.0 0.00 0.00 0.00 67 1013.2
20260507035904 45 0 0.0 1.0 0.00 0.00 0.00 67 1013.2
20260507035804 45 0 0.0 1.0 0.00 0.00 0.00 67 1013.1
20260507035725 45 0 0.0 1.0 0.00 0.00 0.00 67 1013.1
20260507035605 45 0 0.0 2.0 0.00 0.00 0.00 67 1013.2
20260507035505 45 0 0.0 2.0 0.00 0.00 0.00 67 1013.2
20260507035425 46 0 0.0 2.0 0.00 0.00 0.00 66 1013.2
20260507035306 46 0 0.0 2.0 0.00 0.00 0.00 66 1013.2
20260507035204 46 0 0.0 2.0 0.00 0.00 0.00 66 1013.2
20260507035104 46 0 0.0 2.0 0.00 0.00 0.00 67 1013.1
20260507035004 46 0 0.0 2.0 0.00 0.00 0.00 66 1013.2
20260507034904 46 0 0.0 2.0 0.00 0.00 0.00 66 1013.2
20260507034804 45 0 0.0 2.0 0.00 0.00 0.00 66 1013.1
20260507034725 45 0 0.0 2.0 0.00 0.00 0.00 66 1013.1
20260507034605 45 0 0.0 1.0 0.00 0.00 0.00 66 1013.1
20260507034505 45 0 0.0 1.0 0.00 0.00 0.00 66 1013.1
20260507034404 45 0 0.0 1.0 0.00 0.00 0.00 66 1013.1
20260507034304 45 0 0.0 1.0 0.00 0.00 0.00 67 1013.2
20260507034204 45 0 0.0 1.0 0.00 0.00 0.00 67 1013.2
20260507034104 45 0 0.0 1.0 0.00 0.00 0.00 67 1013.1
20260507034005 45 0 0.0 1.0 0.00 0.00 0.00 67 1013.2
20260507033904 45 0 0.0 1.0 0.00 0.00 0.00 67 1013.2
20260507033805 45 0 0.0 1.0 0.00 0.00 0.00 67 1013.2
20260507033725 45 0 0.0 1.0 0.00 0.00 0.00 67 1013.2
20260507033625 45 0 0.0 0.0 0.00 0.00 0.00 67 1013.2
20260507033505 45 0 0.0 0.0 0.00 0.00 0.00 67 1013.1
20260507033404 45 0 0.0 0.0 0.00 0.00 0.00 66 1013.1
20260507033304 45 0 0.0 0.0 0.00 0.00 0.00 66 1013.2
20260507033204 45 0 0.0 1.0 0.00 0.00 0.00 66 1013.2
20260507033104 45 0 0.0 1.0 0.00 0.00 0.00 66 1013.2
20260507033005 45 0 0.0 1.0 0.00 0.00 0.00 66 1013.1
20260507032904 45 0 0.0 1.0 0.00 0.00 0.00 66 1013.1
20260507032825 45 0 0.0 1.0 0.00 0.00 0.00 66 1013.1
20260507032704 45 0 0.0 1.0 0.00 0.00 0.00 66 1013.1
20260507032604 45 0 0.0 1.0 0.00 0.00 0.00 66 1013.1
20260507032504 45 0 0.0 1.0 0.00 0.00 0.00 66 1013.1
20260507032405 45 0 0.0 1.0 0.00 0.00 0.00 66 1013.1
20260507032306 45 0 0.0 1.0 0.00 0.00 0.00 66 1013.2
20260507032204 45 0 0.0 1.0 0.00 0.00 0.00 66 1013.1
20260507032104 45 0 0.0 1.0 0.00 0.00 0.00 66 1013.1
20260507032004 45 0 0.0 1.0 0.00 0.00 0.00 66 1013.2
20260507031904 45 0 0.0 1.0 0.00 0.00 0.00 66 1013.2
20260507031804 45 0 0.0 1.0 0.00 0.00 0.00 66 1013.2
20260507031704 45 0 0.0 1.0 0.00 0.00 0.00 66 1013.2
20260507031604 45 0 0.0 1.0 0.00 0.00 0.00 66 1013.2
20260507031505 45 0 0.0 1.0 0.00 0.00 0.00 65 1013.2
20260507031404 45 0 0.0 0.0 0.00 0.00 0.00 65 1013.2
20260507031304 45 0 0.0 0.0 0.00 0.00 0.00 65 1013.2
20260507031225 45 0 0.0 0.0 0.00 0.00 0.00 65 1013.2
20260507031104 45 0 0.0 0.0 0.00 0.00 0.00 65 1013.2
20260507031004 45 0 0.0 1.0 0.00 0.00 0.00 65 1013.3
20260507030905 45 0 0.0 1.0 0.00 0.00 0.00 65 1013.2
20260507030804 45 0 0.0 1.0 0.00 0.00 0.00 65 1013.2
20260507030704 45 0 0.0 1.0 0.00 0.00 0.00 65 1013.2
20260507030604 45 0 0.0 1.0 0.00 0.00 0.00 65 1013.2
20260507030504 45 0 0.0 1.0 0.00 0.00 0.00 65 1013.2
20260507030425 45 0 0.0 1.0 0.00 0.00 0.00 65 1013.2
20260507030304 45 0 0.0 1.0 0.00 0.00 0.00 64 1013.2
20260507030204 45 0 0.0 1.0 0.00 0.00 0.00 64 1013.2
20260507030125 45 0 0.0 1.0 0.00 0.00 0.00 65 1013.2
20260507030025 45 0 0.0 1.0 0.00 0.00 0.00 65 1013.2
20260507025905 45 0 0.0 1.0 0.00 0.00 0.00 64 1013.2
20260507025804 45 0 0.0 1.0 0.00 0.00 0.00 64 1013.2
20260507025704 45 0 0.0 1.0 0.00 0.00 0.00 64 1013.2
20260507025604 45 0 0.0 0.0 0.00 0.00 0.00 64 1013.2
20260507025504 45 0 0.0 0.0 0.00 0.00 0.00 64 1013.2
20260507025404 45 0 0.0 0.0 0.00 0.00 0.00 64 1013.2
20260507025325 45 0 0.0 0.0 0.00 0.00 0.00 63 1013.2
20260507025225 45 0 0.0 0.0 0.00 0.00 0.00 63 1013.2
20260507025104 45 0 0.0 0.0 0.00 0.00 0.00 63 1013.2
20260507025005 45 0 0.0 0.0 0.00 0.00 0.00 63 1013.2
20260507024904 45 0 0.0 0.0 0.00 0.00 0.00 63 1013.2
20260507024804 45 0 0.0 0.0 0.00 0.00 0.00 63 1013.2
20260507024725 45 0 0.0 0.0 0.00 0.00 0.00 63 1013.2
20260507024625 45 0 0.0 0.0 0.00 0.00 0.00 63 1013.2
20260507024525 45 0 0.0 0.0 0.00 0.00 0.00 62 1013.2
20260507024404 46 0 0.0 0.0 0.00 0.00 0.00 62 1013.2
20260507024304 46 0 0.0 0.0 0.00 0.00 0.00 62 1013.2
20260507024204 46 0 0.0 0.0 0.00 0.00 0.00 62 1013.2
20260507024125 46 0 0.0 0.0 0.00 0.00 0.00 62 1013.2
20260507024004 46 0 0.0 0.0 0.00 0.00 0.00 61 1013.2
20260507023925 46 0 0.0 0.0 0.00 0.00 0.00 61 1013.2
20260507023804 46 0 0.0 0.0 0.00 0.00 0.00 61 1013.2
20260507023704 46 0 0.0 1.0 0.00 0.00 0.00 61 1013.2
20260507023625 46 0 0.0 2.0 0.00 0.00 0.00 61 1013.2
20260507023504 46 0 0.0 2.0 0.00 0.00 0.00 61 1013.2
20260507023404 46 0 0.0 2.0 0.00 0.00 0.00 61 1013.2
20260507023304 46 0 0.0 2.0 0.00 0.00 0.00 61 1013.2
20260507023226 46 0 0.0 2.0 0.00 0.00 0.00 60 1013.2
20260507023104 46 0 0.0 2.0 0.00 0.00 0.00 60 1013.2
20260507023004 46 0 0.0 2.0 0.00 0.00 0.00 60 1013.2
20260507022904 46 0 0.0 2.0 0.00 0.00 0.00 60 1013.2
20260507022804 46 0 0.0 2.0 0.00 0.00 0.00 60 1013.2
20260507022704 46 0 0.0 2.0 0.00 0.00 0.00 60 1013.2
20260507022604 46 0 0.0 1.0 0.00 0.00 0.00 59 1013.1
20260507022504 46 0 0.0 2.0 0.00 0.00 0.00 59 1013.2
20260507022404 46 0 0.0 3.0 0.00 0.00 0.00 59 1013.2
20260507022306 47 0 0.0 3.0 0.00 0.00 0.00 59 1013.2
20260507022204 47 0 0.0 3.0 0.00 0.00 0.00 59 1013.2
20260507022104 47 0 0.0 3.0 0.00 0.00 0.00 59 1013.1
20260507022004 47 0 0.0 3.0 0.00 0.00 0.00 59 1013.1
20260507021904 47 0 0.0 3.0 0.00 0.00 0.00 58 1013.1
20260507021804 47 0 0.0 3.0 0.00 0.00 0.00 58 1013.1
20260507021704 47 251 1.0 3.0 0.00 0.00 0.00 59 1013.1
20260507021604 47 249 1.0 3.0 0.00 0.00 0.00 58 1013.1
20260507021526 47 249 1.0 3.0 0.00 0.00 0.00 58 1013.1
20260507021425 47 0 0.0 3.0 0.00 0.00 0.00 58 1013.1
20260507021325 47 247 1.0 3.0 0.00 0.00 0.00 58 1013.0
20260507021204 47 247 1.0 4.0 0.00 0.00 0.00 58 1013.1
20260507021104 47 246 1.0 4.0 0.00 0.00 0.00 58 1013.1
20260507021004 47 246 1.0 4.0 0.00 0.00 0.00 58 1013.1
20260507020904 47 246 1.0 4.0 0.00 0.00 0.00 58 1013.1
20260507020804 47 250 1.0 4.0 0.00 0.00 0.00 58 1013.1
20260507020704 47 254 1.0 4.0 0.00 0.00 0.00 58 1013.1
20260507020604 47 256 1.0 4.0 0.00 0.00 0.00 58 1013.1
20260507020525 47 257 1.0 4.0 0.00 0.00 0.00 58 1013.1
20260507020404 47 0 0.0 4.0 0.00 0.00 0.00 57 1013.1
20260507020304 47 0 0.0 3.0 0.00 0.00 0.00 58 1013.0
20260507020225 47 0 0.0 3.0 0.00 0.00 0.00 58 1013.0
20260507020104 47 0 0.0 3.0 0.00 0.00 0.00 57 1013.1
20260507020005 47 0 0.0 3.0 0.00 0.00 0.00 57 1013.0
20260507015904 47 0 0.0 3.0 0.00 0.00 0.00 57 1013.1
20260507015804 47 0 0.0 3.0 0.00 0.00 0.00 57 1013.1
20260507015704 47 0 0.0 3.0 0.00 0.00 0.00 57 1013.0
20260507015604 47 0 0.0 3.0 0.00 0.00 0.00 57 1013.0
20260507015505 47 0 0.0 3.0 0.00 0.00 0.00 57 1013.1
20260507015404 47 0 0.0 3.0 0.00 0.00 0.00 57 1013.1
20260507015306 47 0 0.0 3.0 0.00 0.00 0.00 57 1013.1
20260507015204 47 0 0.0 2.0 0.00 0.00 0.00 57 1013.1
20260507015104 47 0 0.0 2.0 0.00 0.00 0.00 57 1013.1
20260507015004 47 0 0.0 2.0 0.00 0.00 0.00 57 1013.1
20260507014904 47 0 0.0 2.0 0.00 0.00 0.00 56 1013.0
20260507014804 47 0 0.0 2.0 0.00 0.00 0.00 56 1013.0
20260507014704 47 0 0.0 2.0 0.00 0.00 0.00 56 1013.0
20260507014604 47 0 0.0 2.0 0.00 0.00 0.00 56 1013.0
20260507014504 47 0 0.0 2.0 0.00 0.00 0.00 56 1013.0
20260507014404 47 0 0.0 2.0 0.00 0.00 0.00 56 1013.0
20260507014304 47 0 0.0 2.0 0.00 0.00 0.00 56 1013.0
20260507014204 47 0 0.0 2.0 0.00 0.00 0.00 56 1013.0
20260507014104 47 0 0.0 2.0 0.00 0.00 0.00 56 1013.0
20260507014004 47 0 0.0 2.0 0.00 0.00 0.00 56 1013.0
20260507013904 47 0 0.0 2.0 0.00 0.00 0.00 56 1012.9
20260507013804 47 0 0.0 2.0 0.00 0.00 0.00 56 1012.9
20260507013704 47 0 0.0 2.0 0.00 0.00 0.00 56 1012.9
20260507013625 47 0 0.0 2.0 0.00 0.00 0.00 56 1012.9
20260507013504 47 0 0.0 2.0 0.00 0.00 0.00 56 1012.9
20260507013404 47 0 0.0 2.0 0.00 0.00 0.00 56 1012.9
20260507013304 47 0 0.0 3.0 0.00 0.00 0.00 56 1012.9
20260507013204 47 260 1.0 3.0 0.00 0.00 0.00 55 1013.0
20260507013104 47 256 1.0 3.0 0.00 0.00 0.00 55 1013.0
20260507013004 47 256 1.0 3.0 0.00 0.00 0.00 55 1013.0
20260507012904 47 0 0.0 3.0 0.00 0.00 0.00 55 1013.0
20260507012805 47 0 0.0 3.0 0.00 0.00 0.00 55 1013.0
20260507012704 47 0 0.0 3.0 0.00 0.00 0.00 55 1013.0
20260507012604 47 0 0.0 3.0 0.00 0.00 0.00 55 1013.0
20260507012504 47 0 0.0 3.0 0.00 0.00 0.00 55 1013.0
20260507012404 47 0 0.0 3.0 0.00 0.00 0.00 55 1013.0
20260507012325 47 0 0.0 3.0 0.00 0.00 0.00 55 1013.0
20260507012204 47 0 0.0 2.0 0.00 0.00 0.00 55 1013.0
20260507012104 47 0 0.0 1.0 0.00 0.00 0.00 55 1013.0
20260507012004 47 0 0.0 1.0 0.00 0.00 0.00 55 1013.0
20260507011904 47 0 0.0 1.0 0.00 0.00 0.00 55 1012.9
20260507011804 47 0 0.0 1.0 0.00 0.00 0.00 55 1013.0
20260507011704 47 0 0.0 1.0 0.00 0.00 0.00 54 1013.0
20260507011625 47 0 0.0 1.0 0.00 0.00 0.00 54 1013.0
20260507011504 47 0 0.0 1.0 0.00 0.00 0.00 54 1013.0
20260507011404 47 0 0.0 1.0 0.00 0.00 0.00 54 1012.9
20260507011325 47 0 0.0 1.0 0.00 0.00 0.00 54 1012.9
20260507011204 47 0 0.0 1.0 0.00 0.00 0.00 53 1012.9
20260507011125 47 0 0.0 2.0 0.00 0.00 0.00 53 1012.9
20260507011004 47 0 0.0 2.0 0.00 0.00 0.00 53 1012.9
20260507010904 47 0 0.0 2.0 0.00 0.00 0.00 53 1012.9
20260507010804 48 0 0.0 2.0 0.00 0.00 0.00 53 1012.9
20260507010704 48 0 0.0 2.0 0.00 0.00 0.00 53 1012.9
20260507010625 48 0 0.0 2.0 0.00 0.00 0.00 53 1012.9
20260507010504 48 0 0.0 2.0 0.00 0.00 0.00 52 1012.9
20260507010404 48 0 0.0 2.0 0.00 0.00 0.00 52 1012.9
20260507010304 48 0 0.0 2.0 0.00 0.00 0.00 52 1012.9
20260507010204 48 0 0.0 2.0 0.00 0.00 0.00 52 1012.9
20260507010125 48 0 0.0 1.0 0.00 0.00 0.00 52 1012.9
20260507010004 48 0 0.0 2.0 0.00 0.00 0.00 52 1012.8
20260507005904 48 0 0.0 2.0 0.00 0.00 0.00 52 1012.8
20260507005804 48 0 0.0 2.0 0.00 0.00 0.00 52 1012.8
20260507005704 48 0 0.0 2.0 0.00 0.00 0.00 52 1012.8
20260507005625 48 0 0.0 2.0 0.00 0.00 0.00 51 1012.7
20260507005504 48 0 0.0 2.0 0.00 0.00 0.00 51 1012.7
20260507005404 48 0 0.0 2.0 0.00 0.00 0.00 52 1012.7
20260507005306 48 0 0.0 2.0 0.00 0.00 0.00 51 1012.7
20260507005204 48 0 0.0 2.0 0.00 0.00 0.00 51 1012.7
20260507005104 48 0 0.0 4.0 0.00 0.00 0.00 51 1012.7
20260507005004 48 248 1.0 4.0 0.00 0.00 0.00 51 1012.7
20260507004904 48 251 1.0 4.0 0.00 0.00 0.00 51 1012.7
20260507004825 48 251 1.0 4.0 0.00 0.00 0.00 51 1012.7
20260507004704 48 251 1.0 4.0 0.00 0.00 0.00 51 1012.7
20260507004604 48 250 1.0 4.0 0.00 0.00 0.00 51 1012.7
20260507004504 48 248 1.0 4.0 0.00 0.00 0.00 51 1012.7
20260507004404 48 248 1.0 4.0 0.00 0.00 0.00 51 1012.7
20260507004304 48 250 1.0 4.0 0.00 0.00 0.00 50 1012.7
20260507004204 48 0 0.0 4.0 0.00 0.00 0.00 50 1012.6
20260507004125 48 0 0.0 4.0 0.00 0.00 0.00 50 1012.6
20260507004005 48 0 0.0 3.0 0.00 0.00 0.00 50 1012.7
20260507003904 48 0 0.0 3.0 0.00 0.00 0.00 50 1012.7
20260507003804 48 241 1.0 4.0 0.00 0.00 0.00 50 1012.6
20260507003704 48 240 1.0 5.0 0.00 0.00 0.00 50 1012.6
20260507003625 48 241 1.0 5.0 0.00 0.00 0.00 50 1012.6
20260507003504 48 237 1.0 5.0 0.00 0.00 0.00 50 1012.6
20260507003404 48 236 1.0 5.0 0.00 0.00 0.00 50 1012.6
20260507003304 48 234 1.0 5.0 0.00 0.00 0.00 50 1012.6
20260507003204 48 233 1.0 5.0 0.00 0.00 0.00 50 1012.6
20260507003104 48 237 1.0 5.0 0.00 0.00 0.00 50 1012.6
20260507003004 48 239 1.0 5.0 0.00 0.00 0.00 50 1012.6
20260507002904 48 242 1.0 5.0 0.00 0.00 0.00 50 1012.6
20260507002804 48 243 1.0 5.0 0.00 0.00 0.00 50 1012.6
20260507002704 48 246 1.0 4.0 0.00 0.00 0.00 49 1012.6
20260507002604 48 246 1.0 4.0 0.00 0.00 0.00 50 1012.6
20260507002504 48 249 1.0 4.0 0.00 0.00 0.00 50 1012.6
20260507002404 48 249 1.0 4.0 0.00 0.00 0.00 50 1012.5
20260507002306 48 252 2.0 5.0 0.00 0.00 0.00 49 1012.5
20260507002204 48 246 2.0 5.0 0.00 0.00 0.00 49 1012.5
20260507002104 48 245 2.0 5.0 0.00 0.00 0.00 49 1012.5
20260507002004 48 244 2.0 5.0 0.00 0.00 0.00 49 1012.5
20260507001904 48 243 2.0 5.0 0.00 0.00 0.00 49 1012.5
20260507001804 48 245 2.0 5.0 0.00 0.00 0.00 49 1012.5
20260507001704 48 243 1.0 5.0 0.00 0.00 0.00 49 1012.5
20260507001604 48 244 2.0 5.0 0.00 0.00 0.00 49 1012.4
20260507001504 48 245 1.0 5.0 0.00 0.00 0.00 49 1012.4
20260507001404 48 245 1.0 5.0 0.00 0.00 0.00 48 1012.4
20260507001304 48 239 1.0 5.0 0.00 0.00 0.00 48 1012.4
20260507001225 48 239 1.0 5.0 0.00 0.00 0.00 48 1012.5
20260507001104 48 245 1.0 5.0 0.00 0.00 0.00 49 1012.5
20260507001005 48 244 1.0 5.0 0.00 0.00 0.00 48 1012.5
20260507000904 48 244 1.0 5.0 0.00 0.00 0.00 48 1012.4
20260507000825 48 243 1.0 4.0 0.00 0.00 0.00 48 1012.4
20260507000704 49 230 1.0 3.0 0.00 0.00 0.00 48 1012.4
20260507000625 49 233 1.0 3.0 0.00 0.00 0.00 48 1012.4
20260507000504 49 237 1.0 6.0 0.00 0.00 0.00 48 1012.4
20260507000405 49 236 1.0 6.0 0.00 0.00 0.00 48 1012.4
20260507000325 49 237 1.0 6.0 0.00 0.00 0.00 48 1012.4
20260507000205 49 238 1.0 6.0 0.00 0.00 0.00 47 1012.4
20260507000025 49 226 1.0 6.0 0.00 0.00 0.00 47 1012.4
20260506235904 49 227 1.0 6.0 0.00 0.00 0.00 47 1012.3
20260506235804 49 230 2.0 6.0 0.00 0.00 0.00 47 1012.4
20260506235704 49 233 1.0 6.0 0.00 0.00 0.00 47 1012.4
20260506235604 49 230 1.0 6.0 0.00 0.00 0.00 47 1012.4
20260506235504 49 222 1.0 5.0 0.00 0.00 0.00 47 1012.4
20260506235404 49 219 1.0 5.0 0.00 0.00 0.00 47 1012.4
20260506235306 49 220 1.0 5.0 0.00 0.00 0.00 46 1012.4
20260506235204 49 214 1.0 5.0 0.00 0.00 0.00 46 1012.4
20260506235104 49 218 1.0 5.0 0.00 0.00 0.00 47 1012.5
20260506235004 49 231 2.0 7.0 0.00 0.00 0.00 46 1012.5
20260506234904 49 233 1.0 7.0 0.00 0.00 0.00 46 1012.5
20260506234805 49 231 1.0 7.0 0.00 0.00 0.00 47 1012.4
20260506234704 49 237 2.0 7.0 0.00 0.00 0.00 47 1012.4
20260506234604 49 243 2.0 7.0 0.00 0.00 0.00 47 1012.5
20260506234504 49 245 2.0 7.0 0.00 0.00 0.00 47 1012.5
20260506234425 49 246 2.0 7.0 0.00 0.00 0.00 47 1012.4
20260506234325 49 249 3.0 7.0 0.00 0.00 0.00 46 1012.4
20260506234204 49 254 2.0 7.0 0.00 0.00 0.00 47 1012.4
20260506234104 49 254 2.0 7.0 0.00 0.00 0.00 47 1012.5
20260506234004 49 256 3.0 7.0 0.00 0.00 0.00 47 1012.5
20260506233904 49 257 2.0 7.0 0.00 0.00 0.00 47 1012.5
20260506233804 49 255 3.0 7.0 0.00 0.00 0.00 46 1012.5
20260506233725 49 254 3.0 7.0 0.00 0.00 0.00 46 1012.5
20260506233604 49 254 3.0 7.0 0.00 0.00 0.00 46 1012.5
20260506233525 49 256 3.0 7.0 0.00 0.00 0.00 46 1012.5
20260506233425 49 257 3.0 7.0 0.00 0.00 0.00 46 1012.5
20260506233304 49 256 3.0 7.0 0.00 0.00 0.00 46 1012.5
20260506233204 49 255 3.0 7.0 0.00 0.00 0.00 47 1012.5
20260506233104 49 254 3.0 7.0 0.00 0.00 0.00 46 1012.5
20260506233004 49 253 3.0 7.0 0.00 0.00 0.00 47 1012.5
20260506232904 49 254 3.0 7.0 0.00 0.00 0.00 47 1012.5
20260506232804 49 255 2.0 7.0 0.00 0.00 0.00 46 1012.5
20260506232703 49 253 2.0 7.0 0.00 0.00 0.00 46 1012.5
20260506232604 49 250 2.0 7.0 0.00 0.00 0.00 46 1012.4
20260506232504 49 246 2.0 7.0 0.00 0.00 0.00 46 1012.4
20260506232404 49 245 2.0 7.0 0.00 0.00 0.00 46 1012.4
20260506232306 49 241 2.0 7.0 0.00 0.00 0.00 46 1012.4
20260506232204 49 239 2.0 6.0 0.00 0.00 0.00 47 1012.5
20260506232125 49 230 2.0 6.0 0.00 0.00 0.00 47 1012.5
20260506232004 49 228 2.0 6.0 0.00 0.00 0.00 46 1012.4
20260506231905 49 225 2.0 7.0 0.00 0.00 0.00 46 1012.4
20260506231804 49 225 2.0 7.0 0.00 0.00 0.00 46 1012.4
20260506231703 49 218 2.0 7.0 0.00 0.00 0.00 46 1012.5
20260506231625 49 217 2.0 7.0 0.00 0.00 0.00 45 1012.5
20260506231504 50 218 2.0 7.0 0.00 0.00 0.00 45 1012.5
20260506231404 50 221 2.0 7.0 0.00 0.00 0.00 45 1012.5
20260506231304 50 222 2.0 7.0 0.00 0.00 0.00 45 1012.4
20260506231203 50 224 2.0 7.0 0.00 0.00 0.00 45 1012.4
20260506231104 50 234 2.0 7.0 0.00 0.00 0.00 45 1012.4
20260506231025 50 238 2.0 8.0 0.00 0.00 0.00 45 1012.4
20260506230904 50 235 2.0 8.0 0.00 0.00 0.00 45 1012.4
20260506230804 50 234 2.0 8.0 0.00 0.00 0.00 45 1012.4
20260506230704 50 239 2.0 8.0 0.00 0.00 0.00 46 1012.4
20260506230604 50 238 2.0 8.0 0.00 0.00 0.00 46 1012.4
20260506230504 50 239 2.0 8.0 0.00 0.00 0.00 45 1012.5
20260506230403 50 237 2.0 8.0 0.00 0.00 0.00 46 1012.4
20260506230304 50 237 2.0 8.0 0.00 0.00 0.00 45 1012.4
20260506230225 50 236 2.0 8.0 0.00 0.00 0.00 45 1012.4
20260506230104 50 235 2.0 8.0 0.00 0.00 0.00 46 1012.4
20260506230004 50 232 2.0 6.0 0.00 0.00 0.00 46 1012.4
20260506225904 50 236 2.0 6.0 0.00 0.00 0.00 46 1012.5
20260506225804 50 237 2.0 6.0 0.00 0.00 0.00 46 1012.5
20260506225725 50 241 2.0 6.0 0.00 0.00 0.00 46 1012.4
20260506225604 50 244 2.0 6.0 0.00 0.00 0.00 45 1012.4
20260506225504 50 241 2.0 6.0 0.00 0.00 0.00 45 1012.4
20260506225404 50 235 2.0 6.0 0.00 0.00 0.00 46 1012.4
20260506225305 50 229 2.0 5.0 0.00 0.00 0.00 46 1012.4
20260506225225 50 233 2.0 7.0 0.00 0.00 0.00 46 1012.4
20260506225104 50 222 2.0 7.0 0.00 0.00 0.00 46 1012.4
20260506225004 50 214 2.0 7.0 0.00 0.00 0.00 46 1012.4
20260506224904 50 216 2.0 7.0 0.00 0.00 0.00 46 1012.4
20260506224804 50 214 2.0 7.0 0.00 0.00 0.00 45 1012.4
20260506224703 50 215 2.0 7.0 0.00 0.00 0.00 46 1012.4
20260506224604 50 215 2.0 7.0 0.00 0.00 0.00 45 1012.4
20260506224524 50 212 2.0 7.0 0.00 0.00 0.00 45 1012.4
20260506224403 50 222 2.0 9.0 0.00 0.00 0.00 45 1012.4
20260506224325 50 231 2.0 9.0 0.00 0.00 0.00 45 1012.4
20260506224204 50 230 2.0 9.0 0.00 0.00 0.00 45 1012.5
20260506224104 50 230 2.0 9.0 0.00 0.00 0.00 45 1012.4
20260506224003 50 234 2.0 9.0 0.00 0.00 0.00 46 1012.4
20260506223903 50 236 3.0 9.0 0.00 0.00 0.00 46 1012.4
20260506223805 50 229 3.0 9.0 0.00 0.00 0.00 45 1012.4
20260506223704 50 223 3.0 9.0 0.00 0.00 0.00 45 1012.4
20260506223604 50 220 3.0 9.0 0.00 0.00 0.00 45 1012.4
20260506223503 50 215 3.0 9.0 0.00 0.00 0.00 46 1012.4
20260506223404 50 215 3.0 9.0 0.00 0.00 0.00 45 1012.4
20260506223325 50 212 3.0 9.0 0.00 0.00 0.00 45 1012.4
20260506223204 50 207 3.0 9.0 0.00 0.00 0.00 45 1012.4
20260506223103 50 205 3.0 9.0 0.00 0.00 0.00 45 1012.4
20260506223003 50 208 4.0 9.0 0.00 0.00 0.00 44 1012.4
20260506222904 50 208 3.0 9.0 0.00 0.00 0.00 44 1012.5
20260506222804 50 213 3.0 8.0 0.00 0.00 0.00 44 1012.4
20260506222704 50 216 3.0 8.0 0.00 0.00 0.00 44 1012.4
20260506222604 50 219 3.0 8.0 0.00 0.00 0.00 44 1012.5
20260506222503 50 216 4.0 9.0 0.00 0.00 0.00 44 1012.5
20260506222425 50 213 4.0 9.0 0.00 0.00 0.00 44 1012.4
20260506222306 50 213 3.0 9.0 0.00 0.00 0.00 45 1012.4
20260506222204 50 214 3.0 9.0 0.00 0.00 0.00 45 1012.4
20260506222103 50 216 3.0 9.0 0.00 0.00 0.00 45 1012.4
20260506222003 50 214 3.0 9.0 0.00 0.00 0.00 44 1012.4
20260506221904 50 213 3.0 9.0 0.00 0.00 0.00 44 1012.4
20260506221804 51 213 2.0 9.0 0.00 0.00 0.00 44 1012.5
20260506221703 51 215 2.0 9.0 0.00 0.00 0.00 44 1012.5
20260506221624 51 211 2.0 9.0 0.00 0.00 0.00 44 1012.5
20260506221525 51 218 2.0 9.0 0.00 0.00 0.00 44 1012.5
20260506221404 51 229 2.0 6.0 0.00 0.00 0.00 44 1012.5
20260506221304 51 236 2.0 5.0 0.00 0.00 0.00 44 1012.5
20260506221203 51 241 2.0 6.0 0.00 0.00 0.00 44 1012.5
20260506221104 51 245 2.0 7.0 0.00 0.00 0.00 44 1012.4
20260506221003 51 245 3.0 7.0 0.00 0.00 0.00 44 1012.4
20260506220903 51 247 3.0 8.0 0.00 0.00 0.00 44 1012.4
20260506220824 51 249 3.0 8.0 0.00 0.00 0.00 44 1012.4
20260506220725 51 250 3.0 8.0 0.00 0.00 0.00 44 1012.4
20260506220625 51 252 3.0 10.0 0.00 0.00 0.00 44 1012.4
20260506220504 51 249 4.0 10.0 0.00 0.00 0.00 44 1012.5
20260506220424 51 249 4.0 10.0 0.00 0.00 0.00 43 1012.5
20260506220324 51 246 4.0 10.0 0.00 0.00 0.00 43 1012.4
20260506220204 51 247 5.0 10.0 0.00 0.00 0.00 43 1012.4
20260506220104 51 247 5.0 11.0 0.00 0.00 0.00 43 1012.4
20260506220004 51 248 5.0 11.0 0.00 0.00 0.00 43 1012.5
20260506215903 51 247 5.0 11.0 0.00 0.00 0.00 43 1012.5
20260506215825 51 244 5.0 11.0 0.00 0.00 0.00 43 1012.5
20260506215703 51 243 4.0 11.0 0.00 0.00 0.00 43 1012.4
20260506215603 51 239 4.0 11.0 0.00 0.00 0.00 43 1012.4
20260506215503 51 241 4.0 11.0 0.00 0.00 0.00 43 1012.4
20260506215424 51 240 4.0 11.0 0.00 0.00 0.00 43 1012.4
20260506215306 52 239 3.0 11.0 0.00 0.00 0.00 43 1012.4
20260506215204 52 235 3.0 11.0 0.00 0.00 0.00 43 1012.4
20260506215103 52 233 3.0 10.0 0.00 0.00 0.00 42 1012.4
20260506215004 52 232 3.0 7.0 0.00 0.00 0.00 42 1012.5
20260506214903 53 234 3.0 8.0 0.00 0.00 0.00 42 1012.5
20260506214804 53 238 3.0 8.0 0.00 0.00 0.00 42 1012.4
20260506214704 53 240 3.0 8.0 0.00 0.00 0.00 43 1012.4
20260506214604 52 244 4.0 8.0 0.00 0.00 0.00 43 1012.4
20260506214503 52 246 4.0 9.0 0.00 0.00 0.00 43 1012.4
20260506214404 52 251 4.0 9.0 0.00 0.00 0.00 43 1012.4
20260506214304 52 254 5.0 9.0 0.00 0.00 0.00 43 1012.4
20260506214204 52 255 5.0 10.0 0.00 0.00 0.00 44 1012.3
20260506214104 52 257 5.0 10.0 0.00 0.00 0.00 43 1012.3
20260506214004 52 257 5.0 10.0 0.00 0.00 0.00 43 1012.3
20260506213904 52 256 5.0 10.0 0.00 0.00 0.00 42 1012.3
20260506213804 52 254 5.0 10.0 0.00 0.00 0.00 42 1012.3
20260506213703 52 254 5.0 10.0 0.00 0.00 0.00 42 1012.4
20260506213603 52 254 4.0 10.0 0.00 0.00 0.00 43 1012.4
20260506213503 52 254 5.0 10.0 0.00 0.00 0.00 42 1012.4
20260506213404 52 251 5.0 10.0 0.00 0.00 0.00 42 1012.4
20260506213304 52 251 5.0 11.0 0.00 0.00 0.00 43 1012.4
20260506213203 52 251 5.0 11.0 0.00 0.00 0.00 43 1012.3
20260506213104 52 249 5.0 11.0 0.00 0.00 0.00 42 1012.3
20260506213004 52 250 5.0 11.0 0.00 0.00 0.00 42 1012.3
20260506212904 52 253 5.0 11.0 0.00 0.00 0.00 42 1012.3
20260506212803 52 255 5.0 11.0 0.00 0.00 0.00 42 1012.3
20260506212725 52 255 5.0 11.0 0.00 0.00 0.00 42 1012.3
20260506212625 52 253 5.0 11.0 0.00 0.00 0.00 43 1012.3
20260506212504 52 252 5.0 11.0 0.00 0.00 0.00 42 1012.3
20260506212403 53 252 5.0 11.0 0.00 0.00 0.00 42 1012.4
20260506212306 53 251 5.0 11.0 0.00 0.00 0.00 42 1012.4
20260506212204 53 251 5.0 11.0 0.00 0.00 0.00 42 1012.4
20260506212104 53 250 4.0 11.0 0.00 0.00 0.00 42 1012.3
20260506212003 53 248 4.0 11.0 0.00 0.00 0.00 42 1012.3
20260506211903 53 242 4.0 11.0 0.00 0.00 0.00 42 1012.4
20260506211803 53 240 4.0 11.0 0.00 0.00 0.00 41 1012.4
20260506211703 53 241 4.0 11.0 0.00 0.00 0.00 41 1012.4
20260506211604 54 239 4.0 11.0 0.00 0.00 0.00 42 1012.4
20260506211504 53 242 4.0 11.0 0.00 0.00 0.00 41 1012.4
20260506211403 54 242 4.0 11.0 0.00 0.00 0.00 41 1012.4
20260506211304 54 242 4.0 11.0 0.00 0.00 0.00 41 1012.4
20260506211203 54 241 4.0 11.0 0.00 0.00 0.00 41 1012.4
20260506211103 53 240 4.0 11.0 0.00 0.00 0.00 41 1012.4
20260506211004 53 241 4.0 11.0 0.00 0.00 0.00 41 1012.4
20260506210903 53 241 4.0 11.0 0.00 0.00 0.00 41 1012.5
20260506210803 53 244 4.0 11.0 0.00 0.00 0.00 41 1012.5
20260506210724 54 242 4.0 11.0 0.00 0.00 0.00 41 1012.5
20260506210603 53 242 4.0 9.0 0.00 0.00 0.00 42 1012.4
20260506210503 53 245 4.0 9.0 0.00 0.00 0.00 41 1012.4
20260506210404 53 246 4.0 11.0 0.00 0.00 0.00 41 1012.4
20260506210325 53 249 4.0 11.0 0.00 0.00 0.00 41 1012.4
20260506210224 53 247 4.0 11.0 0.00 0.00 0.00 41 1012.5
20260506210124 53 248 4.0 11.0 0.00 0.00 0.00 41 1012.4
20260506210004 53 249 5.0 11.0 0.00 0.00 0.00 42 1012.4
20260506205904 53 247 4.0 11.0 0.00 0.00 0.00 41 1012.5
20260506205803 53 246 4.0 11.0 0.00 0.00 0.00 42 1012.5
20260506205724 53 248 4.0 11.0 0.00 0.00 0.00 43 1012.5
20260506205603 53 251 5.0 11.0 0.00 0.00 0.00 42 1012.5
20260506205525 53 250 5.0 11.0 0.00 0.00 0.00 42 1012.5
20260506205404 53 249 4.0 10.0 0.00 0.00 0.00 41 1012.5
20260506205306 53 247 4.0 10.0 0.00 0.00 0.00 41 1012.6
20260506205203 53 247 4.0 10.0 0.00 0.00 0.00 41 1012.6
20260506205124 53 249 4.0 10.0 0.00 0.00 0.00 42 1012.4
20260506205004 53 250 5.0 12.0 0.00 0.00 0.00 42 1012.5
20260506204904 53 254 5.0 12.0 0.00 0.00 0.00 42 1012.5
20260506204803 53 255 5.0 12.0 0.00 0.00 0.00 41 1012.5
20260506204703 53 251 5.0 12.0 0.00 0.00 0.00 41 1012.5
20260506204603 53 249 5.0 12.0 0.00 0.00 0.00 42 1012.5
20260506204524 53 246 5.0 12.0 0.00 0.00 0.00 42 1012.5
20260506204424 52 241 5.0 12.0 0.00 0.00 0.00 42 1012.5
20260506204303 52 239 5.0 12.0 0.00 0.00 0.00 41 1012.5
20260506204203 52 242 5.0 12.0 0.00 0.00 0.00 41 1012.5
20260506204103 52 239 4.0 12.0 0.00 0.00 0.00 40 1012.6
20260506204004 53 238 4.0 10.0 0.00 0.00 0.00 40 1012.6
20260506203904 53 237 4.0 10.0 0.00 0.00 0.00 40 1012.6
20260506203803 54 234 4.0 8.0 0.00 0.00 0.00 40 1012.5
20260506203703 53 238 4.0 8.0 0.00 0.00 0.00 40 1012.6
20260506203603 54 236 4.0 8.0 0.00 0.00 0.00 40 1012.6
20260506203504 53 244 4.0 9.0 0.00 0.00 0.00 42 1012.6
20260506203403 53 249 5.0 12.0 0.00 0.00 0.00 42 1012.6
20260506203303 53 250 4.0 12.0 0.00 0.00 0.00 42 1012.7
20260506203203 53 247 5.0 12.0 0.00 0.00 0.00 42 1012.7
20260506203103 53 246 5.0 12.0 0.00 0.00 0.00 40 1012.7
20260506203003 53 246 5.0 12.0 0.00 0.00 0.00 41 1012.7
20260506202903 53 244 5.0 12.0 0.00 0.00 0.00 42 1012.7
20260506202803 53 243 5.0 12.0 0.00 0.00 0.00 42 1012.7
20260506202703 52 240 5.0 12.0 0.00 0.00 0.00 41 1012.7
20260506202603 52 241 5.0 12.0 0.00 0.00 0.00 41 1012.7
20260506202504 53 240 4.0 12.0 0.00 0.00 0.00 40 1012.7
20260506202404 53 236 4.0 10.0 0.00 0.00 0.00 41 1012.7
20260506202306 53 235 4.0 10.0 0.00 0.00 0.00 41 1012.7
20260506202203 53 234 4.0 10.0 0.00 0.00 0.00 40 1012.7
20260506202124 53 232 4.0 10.0 0.00 0.00 0.00 42 1012.7
20260506202004 53 235 5.0 10.0 0.00 0.00 0.00 41 1012.8
20260506201903 53 238 5.0 10.0 0.00 0.00 0.00 41 1012.7
20260506201803 53 242 5.0 10.0 0.00 0.00 0.00 42 1012.7
20260506201703 52 247 5.0 10.0 0.00 0.00 0.00 41 1012.7
20260506201603 53 244 5.0 10.0 0.00 0.00 0.00 40 1012.7
20260506201504 53 242 5.0 10.0 0.00 0.00 0.00 42 1012.7
20260506201424 53 241 5.0 10.0 0.00 0.00 0.00 42 1012.7
20260506201303 53 242 5.0 10.0 0.00 0.00 0.00 41 1012.8
20260506201224 53 244 5.0 13.0 0.00 0.00 0.00 42 1012.8
20260506201104 52 248 5.0 13.0 0.00 0.00 0.00 42 1012.8
20260506201003 52 248 5.0 13.0 0.00 0.00 0.00 41 1012.9
20260506200903 52 247 5.0 13.0 0.00 0.00 0.00 42 1012.8
20260506200803 53 243 5.0 13.0 0.00 0.00 0.00 41 1012.8
20260506200724 53 241 5.0 13.0 0.00 0.00 0.00 41 1012.9
20260506200603 52 245 5.0 13.0 0.00 0.00 0.00 42 1012.8
20260506200525 52 247 5.0 13.0 0.00 0.00 0.00 42 1012.8
20260506200403 52 249 5.0 13.0 0.00 0.00 0.00 41 1012.8
20260506200303 52 249 6.0 13.0 0.00 0.00 0.00 42 1012.8
20260506200224 52 250 6.0 14.0 0.00 0.00 0.00 42 1012.8
20260506200104 52 250 6.0 14.0 0.00 0.00 0.00 40 1012.8
20260506200025 52 248 6.0 14.0 0.00 0.00 0.00 41 1012.8
20260506195924 52 247 5.0 14.0 0.00 0.00 0.00 41 1012.8
20260506195804 52 250 5.0 14.0 0.00 0.00 0.00 41 1012.8
20260506195703 52 251 5.0 14.0 0.00 0.00 0.00 40 1012.9
20260506195624 53 250 5.0 14.0 0.00 0.00 0.00 40 1012.9
20260506195524 53 250 5.0 14.0 0.00 0.00 0.00 40 1012.9
20260506195403 53 252 5.0 14.0 0.00 0.00 0.00 40 1012.8
20260506195305 53 252 5.0 14.0 0.00 0.00 0.00 40 1012.8
20260506195203 53 249 5.0 11.0 0.00 0.00 0.00 41 1012.8
20260506195103 53 250 5.0 11.0 0.00 0.00 0.00 41 1012.9
20260506195024 53 252 5.0 11.0 0.00 0.00 0.00 41 1012.9
20260506194903 53 252 5.0 11.0 0.00 0.00 0.00 42 1012.9
20260506194804 52 250 5.0 11.0 0.00 0.00 0.00 41 1012.9
20260506194703 52 250 4.0 11.0 0.00 0.00 0.00 40 1012.9
20260506194625 52 252 4.0 11.0 0.00 0.00 0.00 39 1012.8
20260506194503 53 253 4.0 12.0 0.00 0.00 0.00 40 1012.8
20260506194407 53 251 4.0 12.0 0.00 0.00 0.00 40 1012.9
20260506194307 53 248 4.0 12.0 0.00 0.00 0.00 39 1012.8
20260506194206 53 250 4.0 12.0 0.00 0.00 0.00 40 1012.8
20260506194106 53 251 4.0 12.0 0.00 0.00 0.00 40 1012.8
20260506194006 53 256 4.0 12.0 0.00 0.00 0.00 40 1012.8
20260506193907 53 257 4.0 12.0 0.00 0.00 0.00 41 1012.7
20260506193807 53 261 5.0 12.0 0.00 0.00 0.00 41 1012.8
20260506193706 52 263 5.0 12.0 0.00 0.00 0.00 41 1012.8
20260506193606 53 264 5.0 12.0 0.00 0.00 0.00 41 1012.8
20260506193506 53 264 5.0 11.0 0.00 0.00 0.00 41 1012.8
20260506193407 52 262 5.0 11.0 0.00 0.00 0.00 41 1012.8
20260506193307 52 263 5.0 11.0 0.00 0.00 0.00 42 1012.8
20260506193206 52 263 5.0 11.0 0.00 0.00 0.00 41 1012.8
20260506193106 52 262 4.0 11.0 0.00 0.00 0.00 41 1012.7
20260506193006 52 257 4.0 11.0 0.00 0.00 0.00 41 1012.8
20260506192906 53 247 4.0 11.0 0.00 0.00 0.00 40 1012.8
20260506192806 53 239 5.0 11.0 0.00 0.00 0.00 41 1012.8
20260506192706 53 237 5.0 11.0 0.00 0.00 0.00 41 1012.8
20260506192606 53 232 5.0 11.0 0.00 0.00 0.00 40 1012.8
20260506192507 53 233 4.0 11.0 0.00 0.00 0.00 41 1012.8
20260506192428 53 233 4.0 10.0 0.00 0.00 0.00 42 1012.8
20260506192328 53 232 4.0 10.0 0.00 0.00 0.00 42 1012.9
20260506192206 52 229 5.0 10.0 0.00 0.00 0.00 41 1012.9
20260506192107 52 232 5.0 10.0 0.00 0.00 0.00 41 1012.9
20260506192007 52 234 5.0 10.0 0.00 0.00 0.00 40 1012.9
20260506191906 52 241 5.0 10.0 0.00 0.00 0.00 41 1012.9
20260506191806 52 244 4.0 10.0 0.00 0.00 0.00 41 1012.9
20260506191706 53 244 5.0 11.0 0.00 0.00 0.00 42 1012.9
20260506191606 52 246 4.0 11.0 0.00 0.00 0.00 41 1012.9
20260506191507 53 243 4.0 11.0 0.00 0.00 0.00 40 1012.9
20260506191428 53 243 4.0 11.0 0.00 0.00 0.00 40 1012.9
20260506191306 53 246 4.0 11.0 0.00 0.00 0.00 39 1012.9
20260506191207 53 250 4.0 11.0 0.00 0.00 0.00 38 1012.8
20260506191106 53 252 4.0 11.0 0.00 0.00 0.00 40 1012.8
20260506191006 53 254 4.0 11.0 0.00 0.00 0.00 41 1012.8
20260506190906 53 255 4.0 11.0 0.00 0.00 0.00 42 1012.8
20260506190806 53 255 4.0 11.0 0.00 0.00 0.00 40 1012.7
20260506190706 53 258 4.0 11.0 0.00 0.00 0.00 42 1012.8
20260506190628 53 258 4.0 11.0 0.00 0.00 0.00 41 1012.8
20260506190506 53 256 4.0 11.0 0.00 0.00 0.00 41 1012.8
20260506190406 53 257 4.0 11.0 0.00 0.00 0.00 40 1012.8
20260506190327 53 259 4.0 11.0 0.00 0.00 0.00 40 1012.8
20260506190206 53 258 4.0 11.0 0.00 0.00 0.00 39 1012.8
20260506190128 54 259 4.0 11.0 0.00 0.00 0.00 40 1012.8
20260506190007 54 256 4.0 11.0 0.00 0.00 0.00 41 1012.7